LA METEO DE GRANDFRESNOY - OISE - (60) - ALT.75 m
Donnes mto: Actuelle mardi, 14/01/2020 12:41
Date Horaire Temp. E. Hum. E. P.atmo. Pluie Ensoleilleme Horaire Temp Ev.Tr. UV Ray;solaire P. de rose Rception
14/01/2020 12:41 10,4 C 86 % 1009,3 hPa 0,0 mm 0 min 0 min 0,000 mm 0,0 UV-I 40 W/m 8,2 C 96,00 %
14/01/2020 12:40 10,4 C 86 % 1009,3 hPa 0,2 mm 0 min 0 min 0,000 mm 0,0 UV-I 43 W/m 8,2 C 95,83 %
14/01/2020 12:39 10,4 C 86 % 1009,3 hPa 0,0 mm 0 min 0 min 0,000 mm 0,0 UV-I 47 W/m 8,2 C 100,00 %
14/01/2020 12:38 10,4 C 86 % 1009,3 hPa 0,0 mm 0 min 0 min 0,000 mm 0,0 UV-I 47 W/m 8,2 C 100,00 %
14/01/2020 12:37 10,4 C 86 % 1009,2 hPa 0,0 mm 0 min 0 min 0,000 mm 0,0 UV-I 46 W/m 8,2 C 96,00 %
14/01/2020 12:36 10,4 C 86 % 1009,3 hPa 0,0 mm 0 min 0 min 0,000 mm 0,0 UV-I 45 W/m 8,2 C 100,00 %
14/01/2020 12:35 10,4 C 86 % 1009,2 hPa 0,0 mm 0 min 0 min 0,000 mm 0,0 UV-I 39 W/m 8,2 C 95,83 %
14/01/2020 12:34 10,4 C 86 % 1009,3 hPa 0,0 mm 0 min 0 min 0,000 mm 0,0 UV-I 35 W/m 8,2 C 100,00 %
14/01/2020 12:33 10,4 C 86 % 1009,3 hPa 0,0 mm 0 min 0 min 0,000 mm 0,0 UV-I 38 W/m 8,2 C 100,00 %
14/01/2020 12:32 10,4 C 86 % 1009,3 hPa 0,0 mm 0 min 0 min 0,000 mm 0,0 UV-I 41 W/m 8,2 C 100,00 %
14/01/2020 12:31 10,4 C 86 % 1009,3 hPa 0,0 mm 0 min 0 min 0,000 mm 0,0 UV-I 40 W/m 8,2 C 100,00 %
14/01/2020 12:30 10,5 C 85 % 1009,2 hPa 0,0 mm 0 min 0 min 0,000 mm 0,0 UV-I 39 W/m 8,1 C 100,00 %
14/01/2020 12:29 10,5 C 85 % 1009,3 hPa 0,0 mm 0 min 0 min 0,000 mm 0,0 UV-I 36 W/m 8,1 C 100,00 %
14/01/2020 12:28 10,5 C 85 % 1009,4 hPa 0,0 mm 0 min 0 min 0,000 mm 0,0 UV-I 30 W/m 8,1 C 100,00 %
14/01/2020 12:27 10,6 C 85 % 1009,3 hPa 0,0 mm 0 min 0 min 0,000 mm 0,0 UV-I 30 W/m 8,2 C 100,00 %
14/01/2020 12:26 10,5 C 85 % 1009,3 hPa 0,0 mm 0 min 0 min 0,000 mm 0,0 UV-I 33 W/m 8,1 C 100,00 %
14/01/2020 12:25 10,6 C 85 % 1009,4 hPa 0,0 mm 0 min 0 min 0,000 mm 0,0 UV-I 35 W/m 8,2 C 100,00 %
14/01/2020 12:24 10,6 C 85 % 1009,4 hPa 0,0 mm 0 min 0 min 0,000 mm 0,0 UV-I 34 W/m 8,2 C 100,00 %
14/01/2020 12:23 10,6 C 85 % 1009,4 hPa 0,0 mm 0 min 0 min 0,000 mm 0,0 UV-I 39 W/m 8,2 C 95,83 %
14/01/2020 12:22 10,6 C 85 % 1009,4 hPa 0,0 mm 0 min 0 min 0,000 mm 0,0 UV-I 39 W/m 8,2 C 100,00 %
14/01/2020 12:21 10,6 C 85 % 1009,4 hPa 0,0 mm 0 min 0 min 0,000 mm 0,0 UV-I 38 W/m 8,2 C 92,00 %
14/01/2020 12:20 10,6 C 84 % 1009,4 hPa 0,0 mm 0 min 0 min 0,000 mm 0,0 UV-I 36 W/m 8,0 C 100,00 %
14/01/2020 12:19 10,6 C 84 % 1009,5 hPa 0,0 mm 0 min 0 min 0,000 mm 0,0 UV-I 35 W/m 8,0 C 100,00 %
14/01/2020 12:18 10,6 C 84 % 1009,4 hPa 0,0 mm 0 min 0 min 0,000 mm 0,0 UV-I 37 W/m 8,0 C 100,00 %
14/01/2020 12:17 10,6 C 84 % 1009,5 hPa 0,0 mm 0 min 0 min 0,000 mm 0,0 UV-I 34 W/m 8,0 C 100,00 %
14/01/2020 12:16 10,6 C 84 % 1009,4 hPa 0,0 mm 0 min 0 min 0,000 mm 0,0 UV-I 33 W/m 8,0 C 100,00 %
14/01/2020 12:15 10,6 C 84 % 1009,5 hPa 0,0 mm 0 min 0 min 0,000 mm 0,0 UV-I 35 W/m 8,0 C 100,00 %
14/01/2020 12:14 10,6 C 84 % 1009,5 hPa 0,0 mm 0 min 0 min 0,000 mm 0,0 UV-I 35 W/m 8,0 C 100,00 %
14/01/2020 12:13 10,6 C 84 % 1009,5 hPa 0,0 mm 0 min 0 min 0,000 mm 0,0 UV-I 37 W/m 8,0 C 96,00 %
14/01/2020 12:12 10,6 C 84 % 1009,5 hPa 0,0 mm 0 min 0 min 0,000 mm 0,0 UV-I 36 W/m 8,0 C 100,00 %
14/01/2020 12:11 10,6 C 84 % 1009,5 hPa 0,0 mm 0 min 0 min 0,000 mm 0,0 UV-I 31 W/m 8,0 C 97,22 %
14/01/2020 12:10 10,6 C 84 % 1009,4 hPa 0,0 mm 0 min 0 min 0,000 mm 0,0 UV-I 32 W/m 8,0 C 100,00 %
14/01/2020 12:09 10,6 C 83 % 1009,5 hPa 0,0 mm 0 min 0 min 0,000 mm 0,0 UV-I 36 W/m 7,8 C 91,67 %
14/01/2020 12:08 10,6 C 83 % 1009,5 hPa 0,0 mm 0 min 0 min 0,000 mm 0,0 UV-I 34 W/m 7,8 C 100,00 %
14/01/2020 12:07 10,6 C 83 % 1009,5 hPa 0,0 mm 0 min 0 min 0,000 mm 0,0 UV-I 33 W/m 7,8 C 92,86 %
14/01/2020 12:06 10,6 C 83 % 1009,5 hPa 0,0 mm 0 min 0 min 0,000 mm 0,0 UV-I 36 W/m 7,8 C 95,83 %
14/01/2020 12:05 10,6 C 83 % 1009,6 hPa 0,0 mm 0 min 0 min 0,000 mm 0,0 UV-I 33 W/m 7,8 C 100,00 %
14/01/2020 12:04 10,5 C 83 % 1009,5 hPa 0,0 mm 0 min 0 min 0,000 mm 0,0 UV-I 33 W/m 7,7 C 100,00 %
14/01/2020 12:03 10,5 C 83 % 1009,5 hPa 0,0 mm 0 min 0 min 0,000 mm 0,0 UV-I 33 W/m 7,7 C 100,00 %
14/01/2020 12:02 10,5 C 83 % 1009,5 hPa 0,0 mm 0 min 0 min 0,000 mm 0,0 UV-I 38 W/m 7,7 C 100,00 %
14/01/2020 12:01 10,4 C 84 % 1009,5 hPa 0,0 mm 0 min 0 min 0,000 mm 0,0 UV-I 38 W/m 7,8 C 100,00 %
14/01/2020 12:00 10,4 C 84 % 1009,6 hPa 0,0 mm 0 min 0 min 0,000 mm 0,0 UV-I 34 W/m 7,8 C 100,00 %
14/01/2020 11:59 10,4 C 84 % 1009,6 hPa 0,0 mm 0 min 0 min 0,000 mm 0,0 UV-I 38 W/m 7,8 C 100,00 %
14/01/2020 11:58 10,4 C 84 % 1009,6 hPa 0,0 mm 0 min 0 min 0,000 mm 0,0 UV-I 32 W/m 7,8 C 100,00 %
14/01/2020 11:57 10,3 C 84 % 1009,5 hPa 0,0 mm 0 min 0 min 0,000 mm 0,0 UV-I 30 W/m 7,7 C 95,83 %
14/01/2020 11:56 10,3 C 84 % 1009,5 hPa 0,0 mm 0 min 0 min 0,000 mm 0,0 UV-I 32 W/m 7,7 C 100,00 %
14/01/2020 11:55 10,3 C 84 % 1009,6 hPa 0,0 mm 0 min 0 min 0,000 mm 0,0 UV-I 33 W/m 7,7 C 100,00 %
14/01/2020 11:54 10,3 C 84 % 1009,6 hPa 0,0 mm 0 min 0 min 0,000 mm 0,0 UV-I 31 W/m 7,7 C 100,00 %
14/01/2020 11:53 10,3 C 84 % 1009,7 hPa 0,0 mm 0 min 0 min 0,000 mm 0,0 UV-I 31 W/m 7,7 C 100,00 %
14/01/2020 11:52 10,3 C 84 % 1009,6 hPa 0,0 mm 0 min 0 min 0,000 mm 0,0 UV-I 34 W/m 7,7 C 100,00 %
14/01/2020 11:51 10,2 C 84 % 1009,6 hPa 0,2 mm 0 min 0 min 0,000 mm 0,0 UV-I 34 W/m 7,6 C 100,00 %
14/01/2020 11:50 10,2 C 85 % 1009,7 hPa 0,0 mm 0 min 0 min 0,000 mm 0,0 UV-I 35 W/m 7,8 C 100,00 %
14/01/2020 11:49 10,2 C 85 % 1009,7 hPa 0,0 mm 0 min 0 min 0,000 mm 0,0 UV-I 33 W/m 7,8 C 100,00 %
14/01/2020 11:48 10,2 C 85 % 1009,7 hPa 0,0 mm 0 min 0 min 0,000 mm 0,0 UV-I 33 W/m 7,8 C 95,83 %
14/01/2020 11:47 10,2 C 85 % 1009,6 hPa 0,0 mm 0 min 0 min 0,000 mm 0,0 UV-I 34 W/m 7,8 C 100,00 %
14/01/2020 11:46 10,2 C 85 % 1009,7 hPa 0,0 mm 0 min 0 min 0,000 mm 0,0 UV-I 30 W/m 7,8 C 100,00 %
14/01/2020 11:45 10,2 C 85 % 1009,7 hPa 0,0 mm 0 min 0 min 0,000 mm 0,0 UV-I 29 W/m 7,8 C 100,00 %
14/01/2020 11:44 10,1 C 85 % 1009,7 hPa 0,0 mm 0 min 0 min 0,000 mm 0,0 UV-I 28 W/m 7,7 C 100,00 %
14/01/2020 11:43 10,1 C 85 % 1009,8 hPa 0,0 mm 0 min 0 min 0,000 mm 0,0 UV-I 28 W/m 7,7 C 100,00 %
14/01/2020 11:42 10,1 C 85 % 1009,8 hPa 0,0 mm 0 min 0 min 0,000 mm 0,0 UV-I 29 W/m 7,7 C 100,00 %
14/01/2020 11:41 10,1 C 85 % 1009,7 hPa 0,0 mm 0 min 0 min 0,000 mm 0,0 UV-I 31 W/m 7,7 C 96,00 %
14/01/2020 11:40 10,1 C 85 % 1009,7 hPa 0,0 mm 0 min 0 min 0,000 mm 0,0 UV-I 29 W/m 7,7 C 95,83 %
14/01/2020 11:39 10,1 C 85 % 1009,8 hPa 0,0 mm 0 min 0 min 0,000 mm 0,0 UV-I 28 W/m 7,7 C 96,00 %
14/01/2020 11:38 10,1 C 85 % 1009,8 hPa 0,0 mm 0 min 0 min 0,000 mm 0,0 UV-I 26 W/m 7,7 C 95,83 %
14/01/2020 11:37 10,0 C 85 % 1009,7 hPa 0,0 mm 0 min 0 min 0,000 mm 0,0 UV-I 26 W/m 7,6 C 96,00 %
14/01/2020 11:36 10,0 C 85 % 1009,7 hPa 0,0 mm 0 min 0 min 0,000 mm 0,0 UV-I 26 W/m 7,6 C 95,83 %
14/01/2020 11:35 10,0 C 85 % 1009,8 hPa 0,0 mm 0 min 0 min 0,000 mm 0,0 UV-I 25 W/m 7,6 C 91,67 %
14/01/2020 11:34 10,0 C 86 % 1009,7 hPa 0,0 mm 0 min 0 min 0,000 mm 0,0 UV-I 26 W/m 7,8 C 95,83 %
14/01/2020 11:33 10,0 C 86 % 1009,8 hPa 0,0 mm 0 min 0 min 0,000 mm 0,0 UV-I 26 W/m 7,8 C 95,83 %
14/01/2020 11:32 10,0 C 86 % 1009,8 hPa 0,0 mm 0 min 0 min 0,000 mm 0,0 UV-I 26 W/m 7,8 C 100,00 %
14/01/2020 11:31 9,9 C 86 % 1009,7 hPa 0,0 mm 0 min 0 min 0,000 mm 0,0 UV-I 28 W/m 7,7 C 100,00 %
14/01/2020 11:30 9,9 C 86 % 1009,8 hPa 0,0 mm 0 min 0 min 0,000 mm 0,0 UV-I 28 W/m 7,7 C 100,00 %
14/01/2020 11:29 9,9 C 86 % 1009,8 hPa 0,0 mm 0 min 0 min 0,000 mm 0,0 UV-I 29 W/m 7,7 C 97,93 %
14/01/2020 11:28 9,9 C 86 % 1009,7 hPa 0,0 mm 0 min 0 min 0,000 mm 0,0 UV-I 31 W/m 7,7 C 100,00 %
14/01/2020 11:27 9,9 C 86 % 1009,8 hPa 0,0 mm 0 min 0 min 0,000 mm 0,0 UV-I 31 W/m 7,7 C 100,00 %
14/01/2020 11:26 9,9 C 86 % 1009,8 hPa 0,0 mm 0 min 0 min 0,000 mm 0,0 UV-I 28 W/m 7,7 C 100,00 %
14/01/2020 11:25 9,9 C 86 % 1009,8 hPa 0,0 mm 0 min 0 min 0,000 mm 0,0 UV-I 30 W/m 7,7 C 100,00 %
14/01/2020 11:24 9,9 C 86 % 1009,8 hPa 0,0 mm 0 min 0 min 0,000 mm 0,0 UV-I 31 W/m 7,7 C 100,00 %
14/01/2020 11:23 9,9 C 86 % 1009,8 hPa 0,0 mm 0 min 0 min 0,000 mm 0,0 UV-I 29 W/m 7,7 C 100,00 %
14/01/2020 11:22 9,9 C 86 % 1009,8 hPa 0,0 mm 0 min 0 min 0,000 mm 0,0 UV-I 30 W/m 7,7 C 100,00 %
14/01/2020 11:21 9,9 C 86 % 1009,8 hPa 0,0 mm 0 min 0 min 0,000 mm 0,0 UV-I 27 W/m 7,7 C 100,00 %
14/01/2020 11:20 9,9 C 86 % 1009,6 hPa 0,0 mm 0 min 0 min 0,000 mm 0,0 UV-I 25 W/m 7,7 C 100,00 %
14/01/2020 11:19 9,9 C 86 % 1009,7 hPa 0,0 mm 0 min 0 min 0,000 mm 0,0 UV-I 28 W/m 7,7 C 100,00 %
14/01/2020 11:18 9,9 C 86 % 1009,8 hPa 0,0 mm 0 min 0 min 0,000 mm 0,0 UV-I 30 W/m 7,7 C 100,00 %
14/01/2020 11:17 9,9 C 86 % 1009,6 hPa 0,0 mm 0 min 0 min 0,000 mm 0,0 UV-I 31 W/m 7,7 C 100,00 %
14/01/2020 11:16 9,9 C 86 % 1009,6 hPa 0,0 mm 0 min 0 min 0,000 mm 0,0 UV-I 32 W/m 7,7 C 100,00 %
14/01/2020 11:15 9,9 C 86 % 1009,6 hPa 0,0 mm 0 min 0 min 0,000 mm 0,0 UV-I 30 W/m 7,7 C 100,00 %
14/01/2020 11:14 9,9 C 86 % 1009,6 hPa 0,0 mm 0 min 0 min 0,000 mm 0,0 UV-I 30 W/m 7,7 C 100,00 %
14/01/2020 11:13 9,9 C 86 % 1009,5 hPa 0,0 mm 0 min 0 min 0,000 mm 0,0 UV-I 33 W/m 7,7 C 96,00 %
14/01/2020 11:12 9,9 C 86 % 1009,6 hPa 0,0 mm 0 min 0 min 0,000 mm 0,0 UV-I 36 W/m 7,7 C 100,00 %
14/01/2020 11:11 9,9 C 86 % 1009,6 hPa 0,0 mm 0 min 0 min 0,000 mm 0,0 UV-I 39 W/m 7,7 C 96,30 %
14/01/2020 11:10 9,9 C 86 % 1009,6 hPa 0,0 mm 0 min 0 min 0,000 mm 0,0 UV-I 39 W/m 7,7 C 100,00 %
14/01/2020 11:09 9,9 C 86 % 1009,7 hPa 0,0 mm 0 min 0 min 0,000 mm 0,0 UV-I 39 W/m 7,7 C 96,43 %
14/01/2020 11:08 9,9 C 86 % 1009,6 hPa 0,0 mm 0 min 0 min 0,000 mm 0,0 UV-I 40 W/m 7,7 C 100,00 %
14/01/2020 11:07 9,9 C 86 % 1009,6 hPa 0,0 mm 0 min 0 min 0,000 mm 0,0 UV-I 42 W/m 7,7 C 96,55 %
14/01/2020 11:06 9,9 C 86 % 1009,7 hPa 0,0 mm 0 min 0 min 0,000 mm 0,0 UV-I 43 W/m 7,7 C 100,00 %
14/01/2020 11:05 9,9 C 86 % 1009,5 hPa 0,0 mm 0 min 0 min 0,000 mm 0,0 UV-I 46 W/m 7,7 C 96,43 %
14/01/2020 11:04 10,0 C 86 % 1009,6 hPa 0,0 mm 0 min 0 min 0,000 mm 0,0 UV-I 46 W/m 7,8 C 100,00 %
14/01/2020 11:03 10,0 C 86 % 1009,7 hPa 0,0 mm 0 min 0 min 0,000 mm 0,0 UV-I 41 W/m 7,8 C 96,00 %
14/01/2020 11:02 10,0 C 86 % 1009,6 hPa 0,0 mm 0 min 0 min 0,000 mm 0,0 UV-I 40 W/m 7,8 C 100,00 %
14/01/2020 11:01 10,1 C 86 % 1009,6 hPa 0,0 mm 0 min 0 min 0,000 mm 0,0 UV-I 44 W/m 7,9 C 95,83 %
14/01/2020 11:00 10,1 C 86 % 1009,5 hPa 0,0 mm 0 min 0 min 0,000 mm 0,0 UV-I 43 W/m 7,9 C 100,00 %
14/01/2020 10:59 10,1 C 85 % 1009,6 hPa 0,0 mm 0 min 0 min 0,000 mm 0,0 UV-I 42 W/m 7,7 C 100,00 %
14/01/2020 10:58 10,1 C 85 % 1009,7 hPa 0,0 mm 0 min 0 min 0,000 mm 0,0 UV-I 42 W/m 7,7 C 100,00 %
14/01/2020 10:57 10,1 C 85 % 1009,7 hPa 0,0 mm 0 min 0 min 0,000 mm 0,0 UV-I 42 W/m 7,7 C 100,00 %
14/01/2020 10:56 10,1 C 85 % 1009,7 hPa 0,0 mm 0 min 0 min 0,000 mm 0,0 UV-I 42 W/m 7,7 C 100,00 %
14/01/2020 10:55 10,1 C 85 % 1009,6 hPa 0,0 mm 0 min 0 min 0,000 mm 0,0 UV-I 45 W/m 7,7 C 100,00 %
14/01/2020 10:54 10,1 C 85 % 1009,8 hPa 0,0 mm 0 min 0 min 0,000 mm 0,0 UV-I 47 W/m 7,7 C 100,00 %
14/01/2020 10:53 10,1 C 85 % 1009,6 hPa 0,2 mm 0 min 0 min 0,000 mm 0,0 UV-I 47 W/m 7,7 C 100,00 %
14/01/2020 10:51 10,2 C 85 % 1009,7 hPa 0,0 mm 0 min 0 min 0,000 mm 0,0 UV-I 49 W/m 7,8 C 100,00 %
14/01/2020 10:50 10,2 C 84 % 1009,6 hPa 0,0 mm 0 min 0 min 0,000 mm 0,0 UV-I 42 W/m 7,6 C 100,00 %
14/01/2020 10:49 10,2 C 84 % 1009,7 hPa 0,0 mm 0 min 0 min 0,000 mm 0,0 UV-I 44 W/m 7,6 C 100,00 %
14/01/2020 10:48 10,2 C 84 % 1009,7 hPa 0,0 mm 0 min 0 min 0,000 mm 0,0 UV-I 44 W/m 7,6 C 100,00 %
14/01/2020 10:47 10,2 C 84 % 1009,7 hPa 0,0 mm 0 min 0 min 0,000 mm 0,0 UV-I 41 W/m 7,6 C 100,00 %
14/01/2020 10:46 10,2 C 84 % 1009,6 hPa 0,0 mm 0 min 0 min 0,000 mm 0,0 UV-I 36 W/m 7,6 C 100,00 %
14/01/2020 10:45 10,2 C 84 % 1009,7 hPa 0,0 mm 0 min 0 min 0,000 mm 0,0 UV-I 39 W/m 7,6 C 100,00 %
14/01/2020 10:44 10,3 C 84 % 1009,7 hPa 0,0 mm 0 min 0 min 0,000 mm 0,0 UV-I 34 W/m 7,7 C 100,00 %
14/01/2020 10:43 10,3 C 84 % 1009,6 hPa 0,0 mm 0 min 0 min 0,000 mm 0,0 UV-I 32 W/m 7,7 C 100,00 %
14/01/2020 10:42 10,3 C 83 % 1009,6 hPa 0,0 mm 0 min 0 min 0,000 mm 0,0 UV-I 34 W/m 7,5 C 100,00 %
14/01/2020 10:41 10,3 C 83 % 1009,6 hPa 0,0 mm 0 min 0 min 0,000 mm 0,0 UV-I 33 W/m 7,5 C 95,83 %
14/01/2020 10:40 10,3 C 83 % 1009,5 hPa 0,0 mm 0 min 0 min 0,000 mm 0,0 UV-I 33 W/m 7,5 C 100,00 %
14/01/2020 10:39 10,4 C 83 % 1009,7 hPa 0,0 mm 0 min 0 min 0,000 mm 0,0 UV-I 26 W/m 7,6 C 100,00 %
14/01/2020 10:38 10,4 C 83 % 1009,6 hPa 0,0 mm 0 min 0 min 0,000 mm 0,0 UV-I 28 W/m 7,6 C 100,00 %
14/01/2020 10:37 10,4 C 82 % 1009,7 hPa 0,0 mm 0 min 0 min 0,000 mm 0,0 UV-I 27 W/m 7,5 C 100,00 %
14/01/2020 10:36 10,4 C 82 % 1009,7 hPa 0,0 mm 0 min 0 min 0,000 mm 0,0 UV-I 24 W/m 7,5 C 100,00 %
14/01/2020 10:35 10,4 C 82 % 1009,6 hPa 0,0 mm 0 min 0 min 0,000 mm 0,0 UV-I 23 W/m 7,5 C 96,00 %
14/01/2020 10:34 10,4 C 82 % 1009,5 hPa 0,0 mm 0 min 0 min 0,000 mm 0,0 UV-I 25 W/m 7,5 C 100,00 %
14/01/2020 10:33 10,5 C 82 % 1009,5 hPa 0,0 mm 0 min 0 min 0,000 mm 0,0 UV-I 25 W/m 7,6 C 96,00 %
14/01/2020 10:32 10,5 C 82 % 1009,5 hPa 0,0 mm 0 min 0 min 0,000 mm 0,0 UV-I 23 W/m 7,6 C 100,00 %
14/01/2020 10:31 10,6 C 82 % 1009,6 hPa 0,0 mm 0 min 0 min 0,000 mm 0,0 UV-I 23 W/m 7,7 C 95,83 %
14/01/2020 10:30 10,6 C 82 % 1009,6 hPa 0,0 mm 0 min 0 min 0,000 mm 0,0 UV-I 22 W/m 7,7 C 96,00 %
14/01/2020 10:29 10,6 C 81 % 1009,5 hPa 0,0 mm 0 min 0 min 0,000 mm 0,0 UV-I 24 W/m 7,5 C 95,83 %
14/01/2020 10:28 10,6 C 81 % 1009,6 hPa 0,0 mm 0 min 0 min 0,000 mm 0,0 UV-I 25 W/m 7,5 C 96,30 %
14/01/2020 10:27 10,6 C 81 % 1009,6 hPa 0,0 mm 0 min 0 min 0,000 mm 0,0 UV-I 21 W/m 7,5 C 100,00 %
14/01/2020 10:26 10,7 C 81 % 1009,7 hPa 0,0 mm 0 min 0 min 0,000 mm 0,0 UV-I 19 W/m 7,6 C 100,00 %
14/01/2020 10:25 10,7 C 81 % 1009,5 hPa 0,0 mm 0 min 0 min 0,000 mm 0,0 UV-I 20 W/m 7,6 C 100,00 %
14/01/2020 10:24 10,7 C 81 % 1009,5 hPa 0,0 mm 0 min 0 min 0,000 mm 0,0 UV-I 21 W/m 7,6 C 100,00 %
14/01/2020 10:23 10,7 C 80 % 1009,5 hPa 0,0 mm 0 min 0 min 0,000 mm 0,0 UV-I 17 W/m 7,4 C 100,00 %
14/01/2020 10:22 10,7 C 80 % 1009,5 hPa 0,0 mm 0 min 0 min 0,000 mm 0,0 UV-I 16 W/m 7,4 C 100,00 %
14/01/2020 10:21 10,8 C 80 % 1009,6 hPa 0,0 mm 0 min 0 min 0,000 mm 0,0 UV-I 15 W/m 7,5 C 100,00 %
14/01/2020 10:20 10,8 C 80 % 1009,5 hPa 0,0 mm 0 min 0 min 0,000 mm 0,0 UV-I 12 W/m 7,5 C 100,00 %
14/01/2020 10:19 10,8 C 80 % 1009,5 hPa 0,0 mm 0 min 0 min 0,000 mm 0,0 UV-I 14 W/m 7,5 C 100,00 %
14/01/2020 10:18 10,8 C 80 % 1009,5 hPa 0,0 mm 0 min 0 min 0,000 mm 0,0 UV-I 13 W/m 7,5 C 100,00 %
14/01/2020 10:17 10,8 C 80 % 1009,6 hPa 0,0 mm 0 min 0 min 0,000 mm 0,0 UV-I 13 W/m 7,5 C 100,00 %
14/01/2020 10:16 10,8 C 80 % 1009,6 hPa 0,0 mm 0 min 0 min 0,000 mm 0,0 UV-I 16 W/m 7,5 C 100,00 %
14/01/2020 10:15 10,8 C 80 % 1009,6 hPa 0,0 mm 0 min 0 min 0,000 mm 0,0 UV-I 12 W/m 7,5 C 100,00 %
14/01/2020 10:14 10,8 C 80 % 1009,5 hPa 0,0 mm 0 min 0 min 0,000 mm 0,0 UV-I 11 W/m 7,5 C 100,00 %
14/01/2020 10:13 10,8 C 80 % 1009,4 hPa 0,0 mm 0 min 0 min 0,000 mm 0,0 UV-I 12 W/m 7,5 C 95,83 %
14/01/2020 10:12 10,8 C 80 % 1009,5 hPa 0,0 mm 0 min 0 min 0,000 mm 0,0 UV-I 11 W/m 7,5 C 100,00 %
14/01/2020 10:11 10,8 C 80 % 1009,5 hPa 0,0 mm 0 min 0 min 0,000 mm 0,0 UV-I 11 W/m 7,5 C 100,00 %
14/01/2020 10:10 10,8 C 80 % 1009,5 hPa 0,0 mm 0 min 0 min 0,000 mm 0,0 UV-I 9 W/m 7,5 C 100,00 %
14/01/2020 10:09 10,8 C 80 % 1009,4 hPa 0,0 mm 0 min 0 min 0,000 mm 0,0 UV-I 9 W/m 7,5 C 100,00 %
14/01/2020 10:08 10,8 C 80 % 1009,5 hPa 0,0 mm 0 min 0 min 0,000 mm 0,0 UV-I 9 W/m 7,5 C 100,00 %
14/01/2020 10:07 10,8 C 80 % 1009,4 hPa 0,0 mm 0 min 0 min 0,000 mm 0,0 UV-I 10 W/m 7,5 C 100,00 %
14/01/2020 10:06 10,8 C 80 % 1009,4 hPa 0,0 mm 0 min 0 min 0,000 mm 0,0 UV-I 10 W/m 7,5 C 100,00 %
14/01/2020 10:05 10,8 C 81 % 1009,5 hPa 0,0 mm 0 min 0 min 0,000 mm 0,0 UV-I 8 W/m 7,7 C 100,00 %
14/01/2020 10:04 10,8 C 81 % 1009,4 hPa 0,0 mm 0 min 0 min 0,000 mm 0,0 UV-I 7 W/m 7,7 C 96,43 %
14/01/2020 10:03 10,8 C 81 % 1009,4 hPa 0,0 mm 0 min 0 min 0,000 mm 0,0 UV-I 7 W/m 7,7 C 96,43 %
14/01/2020 10:02 10,8 C 81 % 1009,5 hPa 0,0 mm 0 min 0 min 0,000 mm 0,0 UV-I 7 W/m 7,7 C 100,00 %
14/01/2020 10:01 10,8 C 81 % 1009,3 hPa 0,0 mm 0 min 0 min 0,000 mm 0,0 UV-I 8 W/m 7,7 C 96,15 %
14/01/2020 10:00 10,8 C 81 % 1009,4 hPa 0,0 mm 0 min 0 min 0,000 mm 0,0 UV-I 8 W/m 7,7 C 100,00 %
14/01/2020 09:59 10,8 C 81 % 1009,3 hPa 0,0 mm 0 min 0 min 0,000 mm 0,0 UV-I 8 W/m 7,7 C 93,33 %
14/01/2020 09:58 10,8 C 81 % 1009,3 hPa 0,0 mm 0 min 0 min 0,000 mm 0,0 UV-I 7 W/m 7,7 C 100,00 %
14/01/2020 09:57 10,7 C 81 % 1009,3 hPa 0,0 mm 0 min 0 min 0,000 mm 0,0 UV-I 9 W/m 7,6 C 96,00 %
14/01/2020 09:56 10,8 C 81 % 1009,2 hPa 0,0 mm 0 min 0 min 0,000 mm 0,0 UV-I 9 W/m 7,7 C 100,00 %
14/01/2020 09:55 10,7 C 81 % 1009,3 hPa 0,0 mm 0 min 0 min 0,000 mm 0,0 UV-I 9 W/m 7,6 C 93,33 %
14/01/2020 09:54 10,7 C 81 % 1009,3 hPa 0,0 mm 0 min 0 min 0,000 mm 0,0 UV-I 8 W/m 7,6 C 100,00 %
14/01/2020 09:53 10,7 C 81 % 1009,3 hPa 0,0 mm 0 min 0 min 0,000 mm 0,0 UV-I 7 W/m 7,6 C 100,00 %
14/01/2020 09:52 10,7 C 81 % 1009,3 hPa 0,0 mm 0 min 0 min 0,000 mm 0,0 UV-I 7 W/m 7,6 C 100,00 %
14/01/2020 09:51 10,7 C 81 % 1009,1 hPa 0,0 mm 0 min 0 min 0,000 mm 0,0 UV-I 9 W/m 7,6 C 100,00 %
14/01/2020 09:50 10,7 C 81 % 1009,2 hPa 0,0 mm 0 min 0 min 0,000 mm 0,0 UV-I 8 W/m 7,6 C 100,00 %
14/01/2020 09:49 10,7 C 81 % 1009,2 hPa 0,0 mm 0 min 0 min 0,000 mm 0,0 UV-I 7 W/m 7,6 C 95,83 %
14/01/2020 09:48 10,7 C 81 % 1009,2 hPa 0,0 mm 0 min 0 min 0,000 mm 0,0 UV-I 7 W/m 7,6 C 100,00 %
14/01/2020 09:47 10,7 C 81 % 1009,2 hPa 0,0 mm 0 min 0 min 0,000 mm 0,0 UV-I 9 W/m 7,6 C 100,00 %
14/01/2020 09:46 10,7 C 81 % 1009,1 hPa 0,0 mm 0 min 0 min 0,000 mm 0,0 UV-I 9 W/m 7,6 C 100,00 %
14/01/2020 09:45 10,7 C 81 % 1009,1 hPa 0,0 mm 0 min 0 min 0,000 mm 0,0 UV-I 8 W/m 7,6 C 100,00 %
14/01/2020 09:44 10,7 C 81 % 1009,2 hPa 0,0 mm 0 min 0 min 0,000 mm 0,0 UV-I 8 W/m 7,6 C 100,00 %
14/01/2020 09:43 10,6 C 81 % 1009,3 hPa 0,0 mm 0 min 0 min 0,000 mm 0,0 UV-I 8 W/m 7,5 C 100,00 %
14/01/2020 09:42 10,6 C 81 % 1009,2 hPa 0,0 mm 0 min 0 min 0,000 mm 0,0 UV-I 6 W/m 7,5 C 100,00 %
14/01/2020 09:41 10,6 C 81 % 1009,1 hPa 0,0 mm 0 min 0 min 0,000 mm 0,0 UV-I 7 W/m 7,5 C 95,92 %
14/01/2020 09:39 10,6 C 81 % 1009,2 hPa 0,0 mm 0 min 0 min 0,000 mm 0,0 UV-I 7 W/m 7,5 C 100,00 %
14/01/2020 09:38 10,6 C 81 % 1009,2 hPa 0,0 mm 0 min 0 min 0,000 mm 0,0 UV-I 6 W/m 7,5 C 100,00 %
14/01/2020 09:37 10,6 C 81 % 1009,2 hPa 0,0 mm 0 min 0 min 0,000 mm 0,0 UV-I 5 W/m 7,5 C 96,43 %
14/01/2020 09:36 10,6 C 81 % 1009,2 hPa 0,0 mm 0 min 0 min 0,000 mm 0,0 UV-I 5 W/m 7,5 C 95,83 %
14/01/2020 09:35 10,6 C 81 % 1009,1 hPa 0,0 mm 0 min 0 min 0,000 mm 0,0 UV-I 5 W/m 7,5 C 100,00 %
14/01/2020 09:34 10,6 C 81 % 1009,2 hPa 0,0 mm 0 min 0 min 0,000 mm 0,0 UV-I 7 W/m 7,5 C 100,00 %
14/01/2020 09:33 10,6 C 81 % 1009,2 hPa 0,0 mm 0 min 0 min 0,000 mm 0,0 UV-I 5 W/m 7,5 C 100,00 %
14/01/2020 09:32 10,6 C 81 % 1009,1 hPa 0,0 mm 0 min 0 min 0,000 mm 0,0 UV-I 5 W/m 7,5 C 96,30 %
14/01/2020 09:31 10,6 C 81 % 1009,0 hPa 0,0 mm 0 min 0 min 0,000 mm 0,0 UV-I 5 W/m 7,5 C 100,00 %
14/01/2020 09:30 10,6 C 81 % 1009,1 hPa 0,0 mm 0 min 0 min 0,000 mm 0,0 UV-I 5 W/m 7,5 C 95,83 %
14/01/2020 09:29 10,6 C 81 % 1009,1 hPa 0,0 mm 0 min 0 min 0,000 mm 0,0 UV-I 5 W/m 7,5 C 100,00 %
14/01/2020 09:28 10,6 C 81 % 1009,0 hPa 0,0 mm 0 min 0 min 0,000 mm 0,0 UV-I 5 W/m 7,5 C 95,65 %
14/01/2020 09:27 10,6 C 81 % 1009,1 hPa 0,0 mm 0 min 0 min 0,000 mm 0,0 UV-I 5 W/m 7,5 C 95,83 %
14/01/2020 09:26 10,6 C 81 % 1009,0 hPa 0,0 mm 0 min 0 min 0,000 mm 0,0 UV-I 5 W/m 7,5 C 100,00 %
14/01/2020 09:25 10,6 C 81 % 1009,1 hPa 0,0 mm 0 min 0 min 0,000 mm 0,0 UV-I 5 W/m 7,5 C 100,00 %
14/01/2020 09:24 10,6 C 81 % 1009,0 hPa 0,0 mm 0 min 0 min 0,000 mm 0,0 UV-I 6 W/m 7,5 C 100,00 %
14/01/2020 09:23 10,6 C 81 % 1009,1 hPa 0,0 mm 0 min 0 min 0,000 mm 0,0 UV-I 5 W/m 7,5 C 100,00 %
14/01/2020 09:22 10,6 C 81 % 1009,1 hPa 0,0 mm 0 min 0 min 0,000 mm 0,0 UV-I 5 W/m 7,5 C 100,00 %
14/01/2020 09:21 10,6 C 81 % 1009,0 hPa 0,0 mm 0 min 0 min 0,000 mm 0,0 UV-I 5 W/m 7,5 C 100,00 %
14/01/2020 09:20 10,6 C 81 % 1009,1 hPa 0,0 mm 0 min 0 min 0,000 mm 0,0 UV-I 3 W/m 7,5 C 100,00 %
14/01/2020 09:19 10,6 C 81 % 1009,1 hPa 0,0 mm 0 min 0 min 0,000 mm 0,0 UV-I 3 W/m 7,5 C 95,83 %
14/01/2020 09:18 10,6 C 81 % 1009,0 hPa 0,0 mm 0 min 0 min 0,000 mm 0,0 UV-I 5 W/m 7,5 C 100,00 %
14/01/2020 09:17 10,6 C 81 % 1009,0 hPa 0,0 mm 0 min 0 min 0,000 mm 0,0 UV-I 5 W/m 7,5 C 100,00 %
14/01/2020 09:16 10,7 C 81 % 1009,1 hPa 0,0 mm 0 min 0 min 0,000 mm 0,0 UV-I 0 W/m 7,6 C 97,96 %
14/01/2020 09:14 10,7 C 81 % 1009,1 hPa 0,0 mm 0 min 0 min 0,000 mm 0,0 UV-I 0 W/m 7,6 C 100,00 %
14/01/2020 09:13 10,7 C 81 % 1009,0 hPa 0,0 mm 0 min 0 min 0,000 mm 0,0 UV-I 0 W/m 7,6 C 100,00 %
14/01/2020 09:12 10,7 C 81 % 1009,0 hPa 0,0 mm 0 min 0 min 0,000 mm 0,0 UV-I 0 W/m 7,6 C 100,00 %
14/01/2020 09:11 10,7 C 81 % 1009,0 hPa 0,0 mm 0 min 0 min 0,000 mm 0,0 UV-I 0 W/m 7,6 C 100,00 %
14/01/2020 09:10 10,7 C 81 % 1009,0 hPa 0,0 mm 0 min 0 min 0,000 mm 0,0 UV-I 0 W/m 7,6 C 100,00 %
14/01/2020 09:09 10,7 C 81 % 1009,0 hPa 0,0 mm 0 min 0 min 0,000 mm 0,0 UV-I 0 W/m 7,6 C 100,00 %
14/01/2020 09:08 10,7 C 81 % 1009,1 hPa 0,0 mm 0 min 0 min 0,000 mm 0,0 UV-I 0 W/m 7,6 C 100,00 %
14/01/2020 09:07 10,7 C 81 % 1008,9 hPa 0,0 mm 0 min 0 min 0,000 mm 0,0 UV-I 0 W/m 7,6 C 92,00 %
14/01/2020 09:06 10,7 C 81 % 1008,9 hPa 0,0 mm 0 min 0 min 0,000 mm 0,0 UV-I 0 W/m 7,6 C 100,00 %
14/01/2020 09:05 10,7 C 81 % 1009,0 hPa 0,0 mm 0 min 0 min 0,000 mm 0,0 UV-I 0 W/m 7,6 C 100,00 %
14/01/2020 09:04 10,7 C 81 % 1009,0 hPa 0,0 mm 0 min 0 min 0,000 mm 0,0 UV-I 0 W/m 7,6 C 100,00 %
14/01/2020 09:03 10,7 C 81 % 1009,0 hPa 0,0 mm 0 min 0 min 0,000 mm 0,0 UV-I 0 W/m 7,6 C 100,00 %
14/01/2020 09:02 10,7 C 81 % 1009,0 hPa 0,0 mm 0 min 0 min 0,000 mm 0,0 UV-I 0 W/m 7,6 C 100,00 %
14/01/2020 09:01 10,7 C 81 % 1009,0 hPa 0,0 mm 0 min 0 min 0,000 mm 0,0 UV-I 0 W/m 7,6 C 100,00 %
14/01/2020 09:00 10,7 C 81 % 1009,0 hPa 0,0 mm 0 min 0 min 0,000 mm 0,0 UV-I 0 W/m 7,6 C 96,00 %
14/01/2020 08:59 10,7 C 80 % 1008,7 hPa 0,0 mm 0 min 0 min 0,000 mm 0,0 UV-I 0 W/m 7,4 C 96,43 %
14/01/2020 08:58 10,7 C 80 % 1008,9 hPa 0,0 mm 0 min 0 min 0,000 mm 0,0 UV-I 0 W/m 7,4 C 100,00 %
14/01/2020 08:57 10,7 C 80 % 1008,9 hPa 0,0 mm 0 min 0 min 0,000 mm 0,0 UV-I 0 W/m 7,4 C 100,00 %
14/01/2020 08:56 10,7 C 80 % 1008,9 hPa 0,0 mm 0 min 0 min 0,000 mm 0,0 UV-I 0 W/m 7,4 C 100,00 %
14/01/2020 08:55 10,7 C 80 % 1008,8 hPa 0,0 mm 0 min 0 min 0,000 mm 0,0 UV-I 0 W/m 7,4 C 96,43 %
14/01/2020 08:54 10,7 C 80 % 1008,8 hPa 0,0 mm 0 min 0 min 0,000 mm 0,0 UV-I 0 W/m 7,4 C 100,00 %
14/01/2020 08:53 10,7 C 80 % 1008,9 hPa 0,0 mm 0 min 0 min 0,000 mm 0,0 UV-I 0 W/m 7,4 C 95,83 %
14/01/2020 08:52 10,7 C 80 % 1008,9 hPa 0,0 mm 0 min 0 min 0,000 mm 0,0 UV-I 0 W/m 7,4 C 100,00 %
14/01/2020 08:51 10,7 C 80 % 1008,9 hPa 0,0 mm 0 min 0 min 0,000 mm 0,0 UV-I 0 W/m 7,4 C 100,00 %
14/01/2020 08:50 10,7 C 80 % 1008,8 hPa 0,0 mm 0 min 0 min 0,000 mm 0,0 UV-I 0 W/m 7,4 C 100,00 %
14/01/2020 08:49 10,7 C 80 % 1008,7 hPa 0,0 mm 0 min 0 min 0,000 mm 0,0 UV-I 0 W/m 7,4 C 100,00 %
14/01/2020 08:48 10,7 C 80 % 1008,9 hPa 0,0 mm 0 min 0 min 0,000 mm 0,0 UV-I 0 W/m 7,4 C 96,00 %
14/01/2020 08:47 10,7 C 80 % 1008,7 hPa 0,0 mm 0 min 0 min 0,000 mm 0,0 UV-I 0 W/m 7,4 C 95,83 %
14/01/2020 08:46 10,7 C 80 % 1008,8 hPa 0,0 mm 0 min 0 min 0,000 mm 0,0 UV-I 0 W/m 7,4 C 100,00 %
14/01/2020 08:45 10,7 C 80 % 1008,8 hPa 0,0 mm 0 min 0 min 0,000 mm 0,0 UV-I 0 W/m 7,4 C 100,00 %
14/01/2020 08:44 10,7 C 80 % 1008,8 hPa 0,0 mm 0 min 0 min 0,000 mm 0,0 UV-I 0 W/m 7,4 C 100,00 %
14/01/2020 08:43 10,7 C 79 % 1008,8 hPa 0,0 mm 0 min 0 min 0,000 mm 0,0 UV-I 0 W/m 7,2 C 100,00 %
14/01/2020 08:42 10,7 C 79 % 1008,8 hPa 0,0 mm 0 min 0 min 0,000 mm 0,0 UV-I 0 W/m 7,2 C 100,00 %
14/01/2020 08:41 10,7 C 79 % 1008,8 hPa 0,0 mm 0 min 0 min 0,000 mm 0,0 UV-I 0 W/m 7,2 C 100,00 %
14/01/2020 08:40 10,7 C 79 % 1008,8 hPa 0,0 mm 0 min 0 min 0,000 mm 0,0 UV-I 0 W/m 7,2 C 100,00 %
14/01/2020 08:39 10,7 C 79 % 1008,8 hPa 0,0 mm 0 min 0 min 0,000 mm 0,0 UV-I 0 W/m 7,2 C 100,00 %
14/01/2020 08:38 10,7 C 79 % 1008,7 hPa 0,0 mm 0 min 0 min 0,000 mm 0,0 UV-I 0 W/m 7,2 C 100,00 %
14/01/2020 08:37 10,7 C 79 % 1008,8 hPa 0,0 mm 0 min 0 min 0,000 mm 0,0 UV-I 0 W/m 7,2 C 100,00 %
14/01/2020 08:36 10,7 C 79 % 1008,7 hPa 0,0 mm 0 min 0 min 0,000 mm 0,0 UV-I 0 W/m 7,2 C 100,00 %
14/01/2020 08:35 10,7 C 79 % 1008,7 hPa 0,0 mm 0 min 0 min 0,000 mm 0,0 UV-I 0 W/m 7,2 C 96,43 %
14/01/2020 08:34 10,7 C 79 % 1008,7 hPa 0,0 mm 0 min 0 min 0,000 mm 0,0 UV-I 0 W/m 7,2 C 100,00 %
14/01/2020 08:33 10,7 C 79 % 1008,7 hPa 0,0 mm 0 min 0 min 0,000 mm 0,0 UV-I 0 W/m 7,2 C 95,83 %
14/01/2020 08:32 10,7 C 79 % 1008,7 hPa 0,0 mm 0 min 0 min 0,000 mm 0,0 UV-I 0 W/m 7,2 C 100,00 %
14/01/2020 08:31 10,7 C 79 % 1008,7 hPa 0,0 mm 0 min 0 min 0,000 mm 0,0 UV-I 0 W/m 7,2 C 100,00 %
14/01/2020 08:30 10,7 C 79 % 1008,7 hPa 0,0 mm 0 min 0 min 0,000 mm 0,0 UV-I 0 W/m 7,2 C 95,83 %
14/01/2020 08:29 10,7 C 79 % 1008,7 hPa 0,0 mm 0 min 0 min 0,000 mm 0,0 UV-I 0 W/m 7,2 C 100,00 %
14/01/2020 08:28 10,7 C 79 % 1008,7 hPa 0,0 mm 0 min 0 min 0,000 mm 0,0 UV-I 0 W/m 7,2 C 95,65 %
14/01/2020 08:27 10,7 C 79 % 1008,7 hPa 0,0 mm 0 min 0 min 0,000 mm 0,0 UV-I 0 W/m 7,2 C 100,00 %
14/01/2020 08:26 10,7 C 79 % 1008,7 hPa 0,0 mm 0 min 0 min 0,000 mm 0,0 UV-I 0 W/m 7,2 C 95,83 %
14/01/2020 08:25 10,7 C 79 % 1008,6 hPa 0,0 mm 0 min 0 min 0,000 mm 0,0 UV-I 0 W/m 7,2 C 92,59 %
14/01/2020 08:24 10,7 C 79 % 1008,6 hPa 0,0 mm 0 min 0 min 0,000 mm 0,0 UV-I 0 W/m 7,2 C 88,00 %
14/01/2020 08:23 10,7 C 79 % 1008,7 hPa 0,0 mm 0 min 0 min 0,000 mm 0,0 UV-I 0 W/m 7,2 C 95,65 %
14/01/2020 08:22 10,7 C 79 % 1008,5 hPa 0,0 mm 0 min 0 min 0,000 mm 0,0 UV-I 0 W/m 7,2 C 100,00 %
14/01/2020 08:21 10,8 C 79 % 1008,7 hPa 0,0 mm 0 min 0 min 0,000 mm 0,0 UV-I 0 W/m 7,3 C 100,00 %
14/01/2020 08:20 10,8 C 79 % 1008,6 hPa 0,0 mm 0 min 0 min 0,000 mm 0,0 UV-I 0 W/m 7,3 C 100,00 %
14/01/2020 08:19 10,8 C 78 % 1008,6 hPa 0,0 mm 0 min 0 min 0,000 mm 0,0 UV-I 0 W/m 7,1 C 100,00 %
14/01/2020 08:18 10,8 C 78 % 1008,6 hPa 0,0 mm 0 min 0 min 0,000 mm 0,0 UV-I 0 W/m 7,1 C 100,00 %
14/01/2020 08:17 10,8 C 78 % 1008,6 hPa 0,0 mm 0 min 0 min 0,000 mm 0,0 UV-I 0 W/m 7,1 C 100,00 %
14/01/2020 08:16 10,8 C 78 % 1008,6 hPa 0,0 mm 0 min 0 min 0,000 mm 0,0 UV-I 0 W/m 7,1 C 100,00 %
14/01/2020 08:15 10,8 C 78 % 1008,6 hPa 0,0 mm 0 min 0 min 0,000 mm 0,0 UV-I 0 W/m 7,1 C 100,00 %
14/01/2020 08:14 10,8 C 78 % 1008,6 hPa 0,0 mm 0 min 0 min 0,000 mm 0,0 UV-I 0 W/m 7,1 C 96,77 %
14/01/2020 08:13 10,8 C 78 % 1008,6 hPa 0,0 mm 0 min 0 min 0,000 mm 0,0 UV-I 0 W/m 7,1 C 100,00 %
14/01/2020 08:12 10,8 C 78 % 1008,5 hPa 0,0 mm 0 min 0 min 0,000 mm 0,0 UV-I 0 W/m 7,1 C 100,00 %
14/01/2020 08:11 10,9 C 78 % 1008,6 hPa 0,0 mm 0 min 0 min 0,000 mm 0,0 UV-I 0 W/m 7,2 C 100,00 %
14/01/2020 08:10 10,9 C 78 % 1008,5 hPa 0,0 mm 0 min 0 min 0,000 mm 0,0 UV-I 0 W/m 7,2 C 100,00 %
14/01/2020 08:09 10,9 C 79 % 1008,5 hPa 0,0 mm 0 min 0 min 0,000 mm 0,0 UV-I 0 W/m 7,4 C 100,00 %
14/01/2020 08:08 10,9 C 79 % 1008,5 hPa 0,0 mm 0 min 0 min 0,000 mm 0,0 UV-I 0 W/m 7,4 C 96,00 %
14/01/2020 08:07 10,9 C 79 % 1008,5 hPa 0,0 mm 0 min 0 min 0,000 mm 0,0 UV-I 0 W/m 7,4 C 100,00 %
14/01/2020 08:06 10,9 C 79 % 1008,4 hPa 0,0 mm 0 min 0 min 0,000 mm 0,0 UV-I 0 W/m 7,4 C 100,00 %
14/01/2020 08:05 10,9 C 79 % 1008,4 hPa 0,0 mm 0 min 0 min 0,000 mm 0,0 UV-I 0 W/m 7,4 C 96,00 %
14/01/2020 08:04 10,9 C 79 % 1008,4 hPa 0,0 mm 0 min 0 min 0,000 mm 0,0 UV-I 0 W/m 7,4 C 100,00 %
14/01/2020 08:03 10,9 C 79 % 1008,3 hPa 0,0 mm 0 min 0 min 0,000 mm 0,0 UV-I 0 W/m 7,4 C 95,83 %
14/01/2020 08:02 10,9 C 79 % 1008,3 hPa 0,0 mm 0 min 0 min 0,000 mm 0,0 UV-I 0 W/m 7,4 C 100,00 %
14/01/2020 08:01 10,9 C 79 % 1008,2 hPa 0,0 mm 0 min 0 min 0,000 mm 0,0 UV-I 0 W/m 7,4 C 100,00 %
14/01/2020 08:00 11,0 C 79 % 1008,4 hPa 0,0 mm 0 min 0 min 0,000 mm 0,0 UV-I 0 W/m 7,5 C 100,00 %
14/01/2020 07:59 11,0 C 79 % 1008,3 hPa 0,0 mm 0 min 0 min 0,000 mm 0,0 UV-I 0 W/m 7,5 C 95,83 %
14/01/2020 07:58 11,0 C 79 % 1008,4 hPa 0,0 mm 0 min 0 min 0,000 mm 0,0 UV-I 0 W/m 7,5 C 91,67 %
14/01/2020 07:57 11,0 C 79 % 1008,3 hPa 0,0 mm 0 min 0 min 0,000 mm 0,0 UV-I 0 W/m 7,5 C 96,43 %
14/01/2020 07:56 11,0 C 79 % 1008,4 hPa 0,0 mm 0 min 0 min 0,000 mm 0,0 UV-I 0 W/m 7,5 C 96,30 %
14/01/2020 07:55 11,0 C 79 % 1008,3 hPa 0,0 mm 0 min 0 min 0,000 mm 0,0 UV-I 0 W/m 7,5 C 100,00 %
14/01/2020 07:54 11,0 C 79 % 1008,3 hPa 0,0 mm 0 min 0 min 0,000 mm 0,0 UV-I 0 W/m 7,5 C 92,59 %
14/01/2020 07:53 11,0 C 78 % 1008,3 hPa 0,0 mm 0 min 0 min 0,000 mm 0,0 UV-I 0 W/m 7,3 C 100,00 %
14/01/2020 07:52 11,0 C 78 % 1008,2 hPa 0,0 mm 0 min 0 min 0,000 mm 0,0 UV-I 0 W/m 7,3 C 91,67 %
14/01/2020 07:51 11,1 C 78 % 1008,2 hPa 0,0 mm 0 min 0 min 0,000 mm 0,0 UV-I 0 W/m 7,4 C 96,43 %
14/01/2020 07:50 11,1 C 78 % 1008,1 hPa 0,0 mm 0 min 0 min 0,000 mm 0,0 UV-I 0 W/m 7,4 C 100,00 %
14/01/2020 07:49 11,1 C 78 % 1008,2 hPa 0,0 mm 0 min 0 min 0,000 mm 0,0 UV-I 0 W/m 7,4 C 100,00 %
14/01/2020 07:48 11,1 C 78 % 1008,2 hPa 0,0 mm 0 min 0 min 0,000 mm 0,0 UV-I 0 W/m 7,4 C 95,83 %
14/01/2020 07:47 11,1 C 78 % 1008,2 hPa 0,0 mm 0 min 0 min 0,000 mm 0,0 UV-I 0 W/m 7,4 C 100,00 %
14/01/2020 07:46 11,1 C 78 % 1008,2 hPa 0,0 mm 0 min 0 min 0,000 mm 0,0 UV-I 0 W/m 7,4 C 91,67 %
14/01/2020 07:45 11,1 C 78 % 1008,3 hPa 0,0 mm 0 min 0 min 0,000 mm 0,0 UV-I 0 W/m 7,4 C 100,00 %
14/01/2020 07:44 11,1 C 78 % 1008,1 hPa 0,0 mm 0 min 0 min 0,000 mm 0,0 UV-I 0 W/m 7,4 C 100,00 %
14/01/2020 07:43 11,1 C 78 % 1008,3 hPa 0,0 mm 0 min 0 min 0,000 mm 0,0 UV-I 0 W/m 7,4 C 96,00 %
14/01/2020 07:42 11,1 C 78 % 1008,2 hPa 0,0 mm 0 min 0 min 0,000 mm 0,0 UV-I 0 W/m 7,4 C 100,00 %
14/01/2020 07:41 11,1 C 78 % 1008,3 hPa 0,0 mm 0 min 0 min 0,000 mm 0,0 UV-I 0 W/m 7,4 C 100,00 %
14/01/2020 07:40 11,1 C 78 % 1008,2 hPa 0,0 mm 0 min 0 min 0,000 mm 0,0 UV-I 0 W/m 7,4 C 95,83 %
14/01/2020 07:39 11,1 C 78 % 1008,3 hPa 0,0 mm 0 min 0 min 0,000 mm 0,0 UV-I 0 W/m 7,4 C 100,00 %
14/01/2020 07:38 11,1 C 78 % 1008,2 hPa 0,0 mm 0 min 0 min 0,000 mm 0,0 UV-I 0 W/m 7,4 C 95,83 %
14/01/2020 07:37 11,1 C 78 % 1008,2 hPa 0,0 mm 0 min 0 min 0,000 mm 0,0 UV-I 0 W/m 7,4 C 96,00 %
14/01/2020 07:36 11,1 C 78 % 1008,2 hPa 0,0 mm 0 min 0 min 0,000 mm 0,0 UV-I 0 W/m 7,4 C 100,00 %
14/01/2020 07:35 11,1 C 78 % 1008,2 hPa 0,0 mm 0 min 0 min 0,000 mm 0,0 UV-I 0 W/m 7,4 C 98,11 %
14/01/2020 07:33 11,1 C 78 % 1008,2 hPa 0,0 mm 0 min 0 min 0,000 mm 0,0 UV-I 0 W/m 7,4 C 100,00 %
14/01/2020 07:32 11,1 C 78 % 1008,2 hPa 0,0 mm 0 min 0 min 0,000 mm 0,0 UV-I 0 W/m 7,4 C 96,00 %
14/01/2020 07:31 11,1 C 78 % 1008,1 hPa 0,0 mm 0 min 0 min 0,000 mm 0,0 UV-I 0 W/m 7,4 C 100,00 %
14/01/2020 07:30 11,1 C 78 % 1008,2 hPa 0,0 mm 0 min 0 min 0,000 mm 0,0 UV-I 0 W/m 7,4 C 96,15 %
14/01/2020 07:29 11,1 C 78 % 1008,3 hPa 0,0 mm 0 min 0 min 0,000 mm 0,0 UV-I 0 W/m 7,4 C 96,00 %
14/01/2020 07:28 11,1 C 78 % 1008,2 hPa 0,0 mm 0 min 0 min 0,000 mm 0,0 UV-I 0 W/m 7,4 C 90,91 %
14/01/2020 07:27 11,2 C 78 % 1008,2 hPa 0,0 mm 0 min 0 min 0,000 mm 0,0 UV-I 0 W/m 7,5 C 96,30 %
14/01/2020 07:26 11,1 C 78 % 1008,2 hPa 0,0 mm 0 min 0 min 0,000 mm 0,0 UV-I 0 W/m 7,4 C 91,67 %
14/01/2020 07:25 11,1 C 78 % 1008,3 hPa 0,0 mm 0 min 0 min 0,000 mm 0,0 UV-I 0 W/m 7,4 C 100,00 %
14/01/2020 07:24 11,1 C 78 % 1008,3 hPa 0,0 mm 0 min 0 min 0,000 mm 0,0 UV-I 0 W/m 7,4 C 95,83 %
14/01/2020 07:23 11,1 C 78 % 1008,3 hPa 0,0 mm 0 min 0 min 0,000 mm 0,0 UV-I 0 W/m 7,4 C 96,00 %
14/01/2020 07:22 11,1 C 78 % 1008,3 hPa 0,0 mm 0 min 0 min 0,000 mm 0,0 UV-I 0 W/m 7,4 C 96,00 %
14/01/2020 07:21 11,1 C 78 % 1008,4 hPa 0,0 mm 0 min 0 min 0,000 mm 0,0 UV-I 0 W/m 7,4 C 95,83 %
14/01/2020 07:20 11,1 C 78 % 1008,3 hPa 0,0 mm 0 min 0 min 0,000 mm 0,0 UV-I 0 W/m 7,4 C 100,00 %
14/01/2020 07:19 11,1 C 78 % 1008,3 hPa 0,0 mm 0 min 0 min 0,000 mm 0,0 UV-I 0 W/m 7,4 C 100,00 %
14/01/2020 07:18 11,1 C 78 % 1008,3 hPa 0,0 mm 0 min 0 min 0,000 mm 0,0 UV-I 0 W/m 7,4 C 100,00 %
14/01/2020 07:17 11,1 C 78 % 1008,3 hPa 0,0 mm 0 min 0 min 0,000 mm 0,0 UV-I 0 W/m 7,4 C 100,00 %
14/01/2020 07:16 11,1 C 78 % 1008,1 hPa 0,0 mm 0 min 0 min 0,000 mm 0,0 UV-I 0 W/m 7,4 C 100,00 %
14/01/2020 07:15 11,1 C 78 % 1008,2 hPa 0,0 mm 0 min 0 min 0,000 mm 0,0 UV-I 0 W/m 7,4 C 100,00 %
14/01/2020 07:14 11,1 C 78 % 1008,3 hPa 0,0 mm 0 min 0 min 0,000 mm 0,0 UV-I 0 W/m 7,4 C 100,00 %
14/01/2020 07:13 11,0 C 78 % 1008,1 hPa 0,0 mm 0 min 0 min 0,000 mm 0,0 UV-I 0 W/m 7,3 C 100,00 %
14/01/2020 07:12 11,0 C 78 % 1008,1 hPa 0,0 mm 0 min 0 min 0,000 mm 0,0 UV-I 0 W/m 7,3 C 100,00 %
14/01/2020 07:11 11,0 C 78 % 1008,2 hPa 0,0 mm 0 min 0 min 0,000 mm 0,0 UV-I 0 W/m 7,3 C 100,00 %
14/01/2020 07:10 11,0 C 78 % 1008,1 hPa 0,0 mm 0 min 0 min 0,000 mm 0,0 UV-I 0 W/m 7,3 C 100,00 %
14/01/2020 07:09 11,0 C 78 % 1008,2 hPa 0,0 mm 0 min 0 min 0,000 mm 0,0 UV-I 0 W/m 7,3 C 95,83 %
14/01/2020 07:08 11,0 C 78 % 1008,1 hPa 0,0 mm 0 min 0 min 0,000 mm 0,0 UV-I 0 W/m 7,3 C 100,00 %
14/01/2020 07:07 11,0 C 77 % 1008,1 hPa 0,0 mm 0 min 0 min 0,000 mm 0,0 UV-I 0 W/m 7,1 C 100,00 %
14/01/2020 07:06 11,0 C 77 % 1008,1 hPa 0,0 mm 0 min 0 min 0,000 mm 0,0 UV-I 0 W/m 7,1 C 96,00 %
14/01/2020 07:05 11,0 C 77 % 1008,0 hPa 0,0 mm 0 min 0 min 0,000 mm 0,0 UV-I 0 W/m 7,1 C 100,00 %
14/01/2020 07:04 11,0 C 77 % 1008,2 hPa 0,0 mm 0 min 0 min 0,000 mm 0,0 UV-I 0 W/m 7,1 C 100,00 %
14/01/2020 07:03 10,9 C 78 % 1008,1 hPa 0,0 mm 0 min 0 min 0,000 mm 0,0 UV-I 0 W/m 7,2 C 100,00 %
14/01/2020 07:02 10,9 C 78 % 1008,1 hPa 0,0 mm 0 min 0 min 0,000 mm 0,0 UV-I 0 W/m 7,2 C 100,00 %
14/01/2020 07:01 10,9 C 78 % 1008,1 hPa 0,0 mm 0 min 0 min 0,000 mm 0,0 UV-I 0 W/m 7,2 C 100,00 %
14/01/2020 07:00 10,9 C 78 % 1008,1 hPa 0,0 mm 0 min 0 min 0,000 mm 0,0 UV-I 0 W/m 7,2 C 100,00 %
14/01/2020 06:59 10,9 C 77 % 1008,0 hPa 0,0 mm 0 min 0 min 0,000 mm 0,0 UV-I 0 W/m 7,0 C 100,00 %
14/01/2020 06:58 10,9 C 77 % 1008,0 hPa 0,0 mm 0 min 0 min 0,000 mm 0,0 UV-I 0 W/m 7,0 C 100,00 %
14/01/2020 06:57 10,9 C 77 % 1008,0 hPa 0,0 mm 0 min 0 min 0,000 mm 0,0 UV-I 0 W/m 7,0 C 91,67 %
14/01/2020 06:56 10,9 C 77 % 1008,0 hPa 0,0 mm 0 min 0 min 0,000 mm 0,0 UV-I 0 W/m 7,0 C 100,00 %
14/01/2020 06:55 10,9 C 77 % 1008,1 hPa 0,0 mm 0 min 0 min 0,000 mm 0,0 UV-I 0 W/m 7,0 C 91,30 %
14/01/2020 06:54 10,9 C 77 % 1008,0 hPa 0,0 mm 0 min 0 min 0,000 mm 0,0 UV-I 0 W/m 7,0 C 96,00 %
14/01/2020 06:53 10,9 C 77 % 1007,9 hPa 0,0 mm 0 min 0 min 0,000 mm 0,0 UV-I 0 W/m 7,0 C 100,00 %
14/01/2020 06:52 10,9 C 77 % 1008,0 hPa 0,0 mm 0 min 0 min 0,000 mm 0,0 UV-I 0 W/m 7,0 C 96,00 %
14/01/2020 06:51 10,9 C 77 % 1007,9 hPa 0,0 mm 0 min 0 min 0,000 mm 0,0 UV-I 0 W/m 7,0 C 100,00 %
14/01/2020 06:50 10,9 C 77 % 1008,0 hPa 0,0 mm 0 min 0 min 0,000 mm 0,0 UV-I 0 W/m 7,0 C 100,00 %
14/01/2020 06:49 10,9 C 77 % 1007,9 hPa 0,0 mm 0 min 0 min 0,000 mm 0,0 UV-I 0 W/m 7,0 C 100,00 %
14/01/2020 06:48 10,9 C 77 % 1007,9 hPa 0,0 mm 0 min 0 min 0,000 mm 0,0 UV-I 0 W/m 7,0 C 100,00 %
14/01/2020 06:47 10,9 C 77 % 1007,9 hPa 0,0 mm 0 min 0 min 0,000 mm 0,0 UV-I 0 W/m 7,0 C 96,77 %
14/01/2020 06:46 10,9 C 77 % 1008,0 hPa 0,0 mm 0 min 0 min 0,000 mm 0,0 UV-I 0 W/m 7,0 C 100,00 %
14/01/2020 06:45 10,9 C 77 % 1007,8 hPa 0,0 mm 0 min 0 min 0,000 mm 0,0 UV-I 0 W/m 7,0 C 100,00 %
14/01/2020 06:44 10,9 C 77 % 1007,9 hPa 0,0 mm 0 min 0 min 0,000 mm 0,0 UV-I 0 W/m 7,0 C 100,00 %
14/01/2020 06:43 11,0 C 77 % 1007,8 hPa 0,0 mm 0 min 0 min 0,000 mm 0,0 UV-I 0 W/m 7,1 C 100,00 %
14/01/2020 06:42 10,9 C 77 % 1007,9 hPa 0,0 mm 0 min 0 min 0,000 mm 0,0 UV-I 0 W/m 7,0 C 100,00 %
14/01/2020 06:41 10,9 C 77 % 1008,0 hPa 0,0 mm 0 min 0 min 0,000 mm 0,0 UV-I 0 W/m 7,0 C 100,00 %
14/01/2020 06:40 10,9 C 77 % 1007,9 hPa 0,0 mm 0 min 0 min 0,000 mm 0,0 UV-I 0 W/m 7,0 C 100,00 %
14/01/2020 06:39 11,0 C 77 % 1007,8 hPa 0,0 mm 0 min 0 min 0,000 mm 0,0 UV-I 0 W/m 7,1 C 100,00 %
14/01/2020 06:38 10,9 C 78 % 1007,7 hPa 0,0 mm 0 min 0 min 0,000 mm 0,0 UV-I 0 W/m 7,2 C 100,00 %
14/01/2020 06:37 11,0 C 78 % 1007,8 hPa 0,0 mm 0 min 0 min 0,000 mm 0,0 UV-I 0 W/m 7,3 C 96,00 %
14/01/2020 06:36 11,0 C 78 % 1007,9 hPa 0,0 mm 0 min 0 min 0,000 mm 0,0 UV-I 0 W/m 7,3 C 100,00 %
14/01/2020 06:35 11,0 C 78 % 1007,7 hPa 0,0 mm 0 min 0 min 0,000 mm 0,0 UV-I 0 W/m 7,3 C 100,00 %
14/01/2020 06:34 11,0 C 78 % 1007,7 hPa 0,0 mm 0 min 0 min 0,000 mm 0,0 UV-I 0 W/m 7,3 C 100,00 %
14/01/2020 06:33 11,0 C 78 % 1007,8 hPa 0,0 mm 0 min 0 min 0,000 mm 0,0 UV-I 0 W/m 7,3 C 100,00 %
14/01/2020 06:32 11,0 C 78 % 1007,7 hPa 0,0 mm 0 min 0 min 0,000 mm 0,0 UV-I 0 W/m 7,3 C 100,00 %
14/01/2020 06:31 11,0 C 78 % 1007,8 hPa 0,0 mm 0 min 0 min 0,000 mm 0,0 UV-I 0 W/m 7,3 C 100,00 %
14/01/2020 06:30 11,0 C 78 % 1007,9 hPa 0,0 mm 0 min 0 min 0,000 mm 0,0 UV-I 0 W/m 7,3 C 100,00 %
14/01/2020 06:29 11,0 C 78 % 1007,8 hPa 0,0 mm 0 min 0 min 0,000 mm 0,0 UV-I 0 W/m 7,3 C 100,00 %
14/01/2020 06:28 11,0 C 78 % 1007,8 hPa 0,0 mm 0 min 0 min 0,000 mm 0,0 UV-I 0 W/m 7,3 C 95,83 %
14/01/2020 06:27 11,0 C 78 % 1007,7 hPa 0,0 mm 0 min 0 min 0,000 mm 0,0 UV-I 0 W/m 7,3 C 96,15 %
14/01/2020 06:26 11,0 C 78 % 1007,8 hPa 0,0 mm 0 min 0 min 0,000 mm 0,0 UV-I 0 W/m 7,3 C 100,00 %
14/01/2020 06:25 11,0 C 78 % 1007,7 hPa 0,0 mm 0 min 0 min 0,000 mm 0,0 UV-I 0 W/m 7,3 C 93,33 %
14/01/2020 06:24 11,0 C 78 % 1007,8 hPa 0,0 mm 0 min 0 min 0,000 mm 0,0 UV-I 0 W/m 7,3 C 100,00 %
14/01/2020 06:23 11,0 C 78 % 1007,7 hPa 0,0 mm 0 min 0 min 0,000 mm 0,0 UV-I 0 W/m 7,3 C 93,33 %
14/01/2020 06:22 11,0 C 78 % 1007,7 hPa 0,0 mm 0 min 0 min 0,000 mm 0,0 UV-I 0 W/m 7,3 C 100,00 %
14/01/2020 06:21 11,0 C 78 % 1007,8 hPa 0,0 mm 0 min 0 min 0,000 mm 0,0 UV-I 0 W/m 7,3 C 96,43 %
14/01/2020 06:20 11,1 C 78 % 1007,7 hPa 0,0 mm 0 min 0 min 0,000 mm 0,0 UV-I 0 W/m 7,4 C 100,00 %
14/01/2020 06:19 11,0 C 78 % 1007,8 hPa 0,0 mm 0 min 0 min 0,000 mm 0,0 UV-I 0 W/m 7,3 C 100,00 %
14/01/2020 06:18 11,0 C 78 % 1007,8 hPa 0,0 mm 0 min 0 min 0,000 mm 0,0 UV-I 0 W/m 7,3 C 100,00 %
14/01/2020 06:17 11,0 C 78 % 1007,9 hPa 0,0 mm 0 min 0 min 0,000 mm 0,0 UV-I 0 W/m 7,3 C 100,00 %
14/01/2020 06:16 11,0 C 78 % 1007,8 hPa 0,0 mm 0 min 0 min 0,000 mm 0,0 UV-I 0 W/m 7,3 C 100,00 %
14/01/2020 06:15 11,0 C 78 % 1007,7 hPa 0,0 mm 0 min 0 min 0,000 mm 0,0 UV-I 0 W/m 7,3 C 100,00 %
14/01/2020 06:14 11,0 C 78 % 1007,9 hPa 0,0 mm 0 min 0 min 0,000 mm 0,0 UV-I 0 W/m 7,3 C 100,00 %
14/01/2020 06:13 11,0 C 78 % 1007,8 hPa 0,0 mm 0 min 0 min 0,000 mm 0,0 UV-I 0 W/m 7,3 C 100,00 %
14/01/2020 06:12 11,0 C 78 % 1007,9 hPa 0,0 mm 0 min 0 min 0,000 mm 0,0 UV-I 0 W/m 7,3 C 100,00 %
14/01/2020 06:11 11,0 C 78 % 1007,9 hPa 0,0 mm 0 min 0 min 0,000 mm 0,0 UV-I 0 W/m 7,3 C 100,00 %
14/01/2020 06:10 11,0 C 78 % 1008,0 hPa 0,0 mm 0 min 0 min 0,000 mm 0,0 UV-I 0 W/m 7,3 C 100,00 %
14/01/2020 06:09 11,0 C 78 % 1007,9 hPa 0,0 mm 0 min 0 min 0,000 mm 0,0 UV-I 0 W/m 7,3 C 100,00 %
14/01/2020 06:08 11,0 C 78 % 1008,0 hPa 0,0 mm 0 min 0 min 0,000 mm 0,0 UV-I 0 W/m 7,3 C 100,00 %
14/01/2020 06:07 11,0 C 78 % 1007,9 hPa 0,0 mm 0 min 0 min 0,000 mm 0,0 UV-I 0 W/m 7,3 C 100,00 %
14/01/2020 06:06 11,0 C 78 % 1007,9 hPa 0,0 mm 0 min 0 min 0,000 mm 0,0 UV-I 0 W/m 7,3 C 100,00 %
14/01/2020 06:05 11,0 C 78 % 1007,9 hPa 0,0 mm 0 min 0 min 0,000 mm 0,0 UV-I 0 W/m 7,3 C 100,00 %
14/01/2020 06:04 11,0 C 78 % 1007,9 hPa 0,0 mm 0 min 0 min 0,000 mm 0,0 UV-I 0 W/m 7,3 C 100,00 %
14/01/2020 06:03 10,9 C 78 % 1008,1 hPa 0,0 mm 0 min 0 min 0,000 mm 0,0 UV-I 0 W/m 7,2 C 100,00 %
14/01/2020 06:01 11,0 C 77 % 1007,9 hPa 0,0 mm 0 min 0 min 0,000 mm 0,0 UV-I 0 W/m 7,1 C 96,43 %
14/01/2020 06:00 11,0 C 77 % 1007,9 hPa 0,0 mm 0 min 0 min 0,000 mm 0,0 UV-I 0 W/m 7,1 C 100,00 %
14/01/2020 05:59 11,0 C 77 % 1007,8 hPa 0,0 mm 0 min 0 min 0,000 mm 0,0 UV-I 0 W/m 7,1 C 96,00 %
14/01/2020 05:58 11,0 C 77 % 1007,9 hPa 0,0 mm 0 min 0 min 0,000 mm 0,0 UV-I 0 W/m 7,1 C 95,83 %
14/01/2020 05:57 11,0 C 77 % 1007,8 hPa 0,0 mm 0 min 0 min 0,000 mm 0,0 UV-I 0 W/m 7,1 C 95,65 %
14/01/2020 05:56 11,1 C 77 % 1007,8 hPa 0,0 mm 0 min 0 min 0,000 mm 0,0 UV-I 0 W/m 7,2 C 100,00 %
14/01/2020 05:55 11,1 C 77 % 1007,7 hPa 0,0 mm 0 min 0 min 0,000 mm 0,0 UV-I 0 W/m 7,2 C 95,83 %
14/01/2020 05:54 11,1 C 77 % 1007,7 hPa 0,0 mm 0 min 0 min 0,000 mm 0,0 UV-I 0 W/m 7,2 C 96,00 %
14/01/2020 05:53 11,1 C 77 % 1007,6 hPa 0,0 mm 0 min 0 min 0,000 mm 0,0 UV-I 0 W/m 7,2 C 95,83 %
14/01/2020 05:52 11,0 C 77 % 1007,7 hPa 0,0 mm 0 min 0 min 0,000 mm 0,0 UV-I 0 W/m 7,1 C 100,00 %
14/01/2020 05:51 11,1 C 77 % 1007,7 hPa 0,0 mm 0 min 0 min 0,000 mm 0,0 UV-I 0 W/m 7,2 C 95,83 %
14/01/2020 05:50 11,1 C 77 % 1007,7 hPa 0,0 mm 0 min 0 min 0,000 mm 0,0 UV-I 0 W/m 7,2 C 96,00 %
14/01/2020 05:49 11,1 C 77 % 1007,8 hPa 0,0 mm 0 min 0 min 0,000 mm 0,0 UV-I 0 W/m 7,2 C 95,83 %
14/01/2020 05:48 11,1 C 77 % 1007,8 hPa 0,0 mm 0 min 0 min 0,000 mm 0,0 UV-I 0 W/m 7,2 C 95,83 %
14/01/2020 05:47 11,1 C 77 % 1007,7 hPa 0,0 mm 0 min 0 min 0,000 mm 0,0 UV-I 0 W/m 7,2 C 96,00 %
14/01/2020 05:46 11,1 C 77 % 1007,8 hPa 0,0 mm 0 min 0 min 0,000 mm 0,0 UV-I 0 W/m 7,2 C 100,00 %
14/01/2020 05:45 11,1 C 77 % 1007,8 hPa 0,0 mm 0 min 0 min 0,000 mm 0,0 UV-I 0 W/m 7,2 C 95,83 %
14/01/2020 05:44 11,1 C 77 % 1007,7 hPa 0,0 mm 0 min 0 min 0,000 mm 0,0 UV-I 0 W/m 7,2 C 100,00 %
14/01/2020 05:43 11,1 C 78 % 1007,7 hPa 0,0 mm 0 min 0 min 0,000 mm 0,0 UV-I 0 W/m 7,4 C 100,00 %
14/01/2020 05:42 11,1 C 78 % 1007,8 hPa 0,0 mm 0 min 0 min 0,000 mm 0,0 UV-I 0 W/m 7,4 C 100,00 %
14/01/2020 05:41 11,1 C 78 % 1007,8 hPa 0,0 mm 0 min 0 min 0,000 mm 0,0 UV-I 0 W/m 7,4 C 96,00 %
14/01/2020 05:40 11,1 C 78 % 1007,8 hPa 0,0 mm 0 min 0 min 0,000 mm 0,0 UV-I 0 W/m 7,4 C 96,00 %
14/01/2020 05:39 11,2 C 78 % 1007,7 hPa 0,0 mm 0 min 0 min 0,000 mm 0,0 UV-I 0 W/m 7,5 C 100,00 %
14/01/2020 05:38 11,2 C 78 % 1007,8 hPa 0,0 mm 0 min 0 min 0,000 mm 0,0 UV-I 0 W/m 7,5 C 100,00 %
14/01/2020 05:37 11,2 C 78 % 1007,9 hPa 0,0 mm 0 min 0 min 0,000 mm 0,0 UV-I 0 W/m 7,5 C 96,00 %
14/01/2020 05:36 11,2 C 78 % 1007,9 hPa 0,0 mm 0 min 0 min 0,000 mm 0,0 UV-I 0 W/m 7,5 C 92,86 %
14/01/2020 05:35 11,2 C 78 % 1007,9 hPa 0,0 mm 0 min 0 min 0,000 mm 0,0 UV-I 0 W/m 7,5 C 100,00 %
14/01/2020 05:34 11,2 C 78 % 1007,7 hPa 0,0 mm 0 min 0 min 0,000 mm 0,0 UV-I 0 W/m 7,5 C 100,00 %
14/01/2020 05:33 11,2 C 78 % 1007,8 hPa 0,0 mm 0 min 0 min 0,000 mm 0,0 UV-I 0 W/m 7,5 C 100,00 %
14/01/2020 05:32 11,1 C 78 % 1007,8 hPa 0,0 mm 0 min 0 min 0,000 mm 0,0 UV-I 0 W/m 7,4 C 95,83 %
14/01/2020 05:31 11,2 C 78 % 1007,8 hPa 0,0 mm 0 min 0 min 0,000 mm 0,0 UV-I 0 W/m 7,5 C 95,83 %
14/01/2020 05:30 11,2 C 78 % 1007,8 hPa 0,0 mm 0 min 0 min 0,000 mm 0,0 UV-I 0 W/m 7,5 C 100,00 %
14/01/2020 05:29 11,2 C 78 % 1007,8 hPa 0,0 mm 0 min 0 min 0,000 mm 0,0 UV-I 0 W/m 7,5 C 96,00 %
14/01/2020 05:28 11,2 C 78 % 1007,9 hPa 0,0 mm 0 min 0 min 0,000 mm 0,0 UV-I 0 W/m 7,5 C 100,00 %
14/01/2020 05:27 11,2 C 78 % 1007,8 hPa 0,0 mm 0 min 0 min 0,000 mm 0,0 UV-I 0 W/m 7,5 C 91,67 %
14/01/2020 05:26 11,2 C 78 % 1007,9 hPa 0,0 mm 0 min 0 min 0,000 mm 0,0 UV-I 0 W/m 7,5 C 100,00 %
14/01/2020 05:25 11,2 C 78 % 1007,8 hPa 0,0 mm 0 min 0 min 0,000 mm 0,0 UV-I 0 W/m 7,5 C 100,00 %
14/01/2020 05:24 11,2 C 78 % 1007,9 hPa 0,0 mm 0 min 0 min 0,000 mm 0,0 UV-I 0 W/m 7,5 C 96,67 %
14/01/2020 05:23 11,2 C 78 % 1007,8 hPa 0,0 mm 0 min 0 min 0,000 mm 0,0 UV-I 0 W/m 7,5 C 92,86 %
14/01/2020 05:22 11,1 C 79 % 1007,8 hPa 0,0 mm 0 min 0 min 0,000 mm 0,0 UV-I 0 W/m 7,6 C 95,83 %
14/01/2020 05:21 11,1 C 79 % 1007,9 hPa 0,0 mm 0 min 0 min 0,000 mm 0,0 UV-I 0 W/m 7,6 C 91,67 %
14/01/2020 05:20 11,1 C 79 % 1007,7 hPa 0,0 mm 0 min 0 min 0,000 mm 0,0 UV-I 0 W/m 7,6 C 100,00 %
14/01/2020 05:19 11,1 C 79 % 1008,0 hPa 0,0 mm 0 min 0 min 0,000 mm 0,0 UV-I 0 W/m 7,6 C 96,30 %
14/01/2020 05:18 11,1 C 79 % 1007,9 hPa 0,0 mm 0 min 0 min 0,000 mm 0,0 UV-I 0 W/m 7,6 C 91,67 %
14/01/2020 05:17 11,1 C 79 % 1007,8 hPa 0,0 mm 0 min 0 min 0,000 mm 0,0 UV-I 0 W/m 7,6 C 100,00 %
14/01/2020 05:16 11,1 C 80 % 1007,8 hPa 0,0 mm 0 min 0 min 0,000 mm 0,0 UV-I 0 W/m 7,8 C 96,00 %
14/01/2020 05:15 11,1 C 80 % 1008,0 hPa 0,0 mm 0 min 0 min 0,000 mm 0,0 UV-I 0 W/m 7,8 C 100,00 %
14/01/2020 05:14 11,1 C 80 % 1008,0 hPa 0,0 mm 0 min 0 min 0,000 mm 0,0 UV-I 0 W/m 7,8 C 100,00 %
14/01/2020 05:13 11,0 C 80 % 1007,8 hPa 0,0 mm 0 min 0 min 0,000 mm 0,0 UV-I 0 W/m 7,7 C 96,30 %
14/01/2020 05:12 11,0 C 80 % 1007,8 hPa 0,0 mm 0 min 0 min 0,000 mm 0,0 UV-I 0 W/m 7,7 C 100,00 %
14/01/2020 05:11 10,9 C 80 % 1007,8 hPa 0,0 mm 0 min 0 min 0,000 mm 0,0 UV-I 0 W/m 7,6 C 100,00 %
14/01/2020 05:10 10,9 C 80 % 1007,9 hPa 0,0 mm 0 min 0 min 0,000 mm 0,0 UV-I 0 W/m 7,6 C 100,00 %
14/01/2020 05:09 10,9 C 81 % 1007,9 hPa 0,0 mm 0 min 0 min 0,000 mm 0,0 UV-I 0 W/m 7,8 C 96,00 %
14/01/2020 05:08 10,9 C 81 % 1007,8 hPa 0,0 mm 0 min 0 min 0,000 mm 0,0 UV-I 0 W/m 7,8 C 100,00 %
14/01/2020 05:07 10,9 C 81 % 1007,8 hPa 0,0 mm 0 min 0 min 0,000 mm 0,0 UV-I 0 W/m 7,8 C 100,00 %
14/01/2020 05:06 10,8 C 81 % 1007,8 hPa 0,0 mm 0 min 0 min 0,000 mm 0,0 UV-I 0 W/m 7,7 C 100,00 %
14/01/2020 05:05 10,8 C 81 % 1007,9 hPa 0,0 mm 0 min 0 min 0,000 mm 0,0 UV-I 0 W/m 7,7 C 95,83 %
14/01/2020 05:04 10,8 C 81 % 1007,8 hPa 0,0 mm 0 min 0 min 0,000 mm 0,0 UV-I 0 W/m 7,7 C 96,00 %
14/01/2020 05:03 10,8 C 81 % 1007,8 hPa 0,0 mm 0 min 0 min 0,000 mm 0,0 UV-I 0 W/m 7,7 C 95,83 %
14/01/2020 05:02 10,8 C 81 % 1007,8 hPa 0,0 mm 0 min 0 min 0,000 mm 0,0 UV-I 0 W/m 7,7 C 100,00 %
14/01/2020 05:01 10,8 C 81 % 1007,8 hPa 0,0 mm 0 min 0 min 0,000 mm 0,0 UV-I 0 W/m 7,7 C 100,00 %
14/01/2020 05:00 10,8 C 81 % 1007,8 hPa 0,0 mm 0 min 0 min 0,000 mm 0,0 UV-I 0 W/m 7,7 C 96,30 %
14/01/2020 04:59 10,8 C 81 % 1007,8 hPa 0,0 mm 0 min 0 min 0,000 mm 0,0 UV-I 0 W/m 7,7 C 100,00 %
14/01/2020 04:58 10,8 C 81 % 1007,8 hPa 0,0 mm 0 min 0 min 0,000 mm 0,0 UV-I 0 W/m 7,7 C 96,30 %
14/01/2020 04:57 10,7 C 81 % 1007,8 hPa 0,0 mm 0 min 0 min 0,000 mm 0,0 UV-I 0 W/m 7,6 C 100,00 %
14/01/2020 04:56 10,7 C 81 % 1007,7 hPa 0,0 mm 0 min 0 min 0,000 mm 0,0 UV-I 0 W/m 7,6 C 96,43 %
14/01/2020 04:55 10,7 C 81 % 1007,7 hPa 0,0 mm 0 min 0 min 0,000 mm 0,0 UV-I 0 W/m 7,6 C 100,00 %
14/01/2020 04:54 10,7 C 81 % 1007,7 hPa 0,0 mm 0 min 0 min 0,000 mm 0,0 UV-I 0 W/m 7,6 C 92,31 %
14/01/2020 04:53 10,7 C 81 % 1007,7 hPa 0,0 mm 0 min 0 min 0,000 mm 0,0 UV-I 0 W/m 7,6 C 100,00 %
14/01/2020 04:52 10,7 C 81 % 1007,7 hPa 0,0 mm 0 min 0 min 0,000 mm 0,0 UV-I 0 W/m 7,6 C 96,00 %
14/01/2020 04:51 10,6 C 81 % 1007,5 hPa 0,0 mm 0 min 0 min 0,000 mm 0,0 UV-I 0 W/m 7,5 C 91,67 %
14/01/2020 04:50 10,6 C 81 % 1007,7 hPa 0,0 mm 0 min 0 min 0,000 mm 0,0 UV-I 0 W/m 7,5 C 100,00 %
14/01/2020 04:49 10,6 C 81 % 1007,6 hPa 0,0 mm 0 min 0 min 0,000 mm 0,0 UV-I 0 W/m 7,5 C 88,00 %
14/01/2020 04:48 10,6 C 81 % 1007,6 hPa 0,0 mm 0 min 0 min 0,000 mm 0,0 UV-I 0 W/m 7,5 C 100,00 %
14/01/2020 04:47 10,6 C 81 % 1007,7 hPa 0,0 mm 0 min 0 min 0,000 mm 0,0 UV-I 0 W/m 7,5 C 100,00 %
14/01/2020 04:46 10,6 C 81 % 1007,7 hPa 0,0 mm 0 min 0 min 0,000 mm 0,0 UV-I 0 W/m 7,5 C 95,83 %
14/01/2020 04:45 10,6 C 81 % 1007,6 hPa 0,0 mm 0 min 0 min 0,000 mm 0,0 UV-I 0 W/m 7,5 C 100,00 %
14/01/2020 04:44 10,6 C 81 % 1007,6 hPa 0,0 mm 0 min 0 min 0,000 mm 0,0 UV-I 0 W/m 7,5 C 100,00 %
14/01/2020 04:43 10,6 C 81 % 1007,7 hPa 0,0 mm 0 min 0 min 0,000 mm 0,0 UV-I 0 W/m 7,5 C 100,00 %
14/01/2020 04:42 10,6 C 81 % 1007,6 hPa 0,0 mm 0 min 0 min 0,000 mm 0,0 UV-I 0 W/m 7,5 C 100,00 %
14/01/2020 04:41 10,6 C 81 % 1007,6 hPa 0,0 mm 0 min 0 min 0,000 mm 0,0 UV-I 0 W/m 7,5 C 95,83 %
14/01/2020 04:40 10,5 C 81 % 1007,5 hPa 0,0 mm 0 min 0 min 0,000 mm 0,0 UV-I 0 W/m 7,4 C 100,00 %
14/01/2020 04:39 10,5 C 81 % 1007,5 hPa 0,0 mm 0 min 0 min 0,000 mm 0,0 UV-I 0 W/m 7,4 C 95,83 %
14/01/2020 04:38 10,5 C 81 % 1007,4 hPa 0,0 mm 0 min 0 min 0,000 mm 0,0 UV-I 0 W/m 7,4 C 100,00 %
14/01/2020 04:37 10,5 C 81 % 1007,4 hPa 0,0 mm 0 min 0 min 0,000 mm 0,0 UV-I 0 W/m 7,4 C 98,33 %
14/01/2020 04:36 10,4 C 81 % 1007,5 hPa 0,0 mm 0 min 0 min 0,000 mm 0,0 UV-I 0 W/m 7,3 C 97,13 %
14/01/2020 04:35 10,4 C 81 % 1007,5 hPa 0,0 mm 0 min 0 min 0,000 mm 0,0 UV-I 0 W/m 7,3 C 100,00 %
14/01/2020 04:34 10,4 C 81 % 1007,7 hPa 0,0 mm 0 min 0 min 0,000 mm 0,0 UV-I 0 W/m 7,3 C 100,00 %
14/01/2020 04:33 10,4 C 81 % 1007,5 hPa 0,0 mm 0 min 0 min 0,000 mm 0,0 UV-I 0 W/m 7,3 C 96,00 %
14/01/2020 04:32 10,4 C 81 % 1007,5 hPa 0,0 mm 0 min 0 min 0,000 mm 0,0 UV-I 0 W/m 7,3 C 100,00 %
14/01/2020 04:31 10,4 C 81 % 1007,3 hPa 0,0 mm 0 min 0 min 0,000 mm 0,0 UV-I 0 W/m 7,3 C 100,00 %
14/01/2020 04:30 10,4 C 81 % 1007,4 hPa 0,0 mm 0 min 0 min 0,000 mm 0,0 UV-I 0 W/m 7,3 C 95,83 %
14/01/2020 04:29 10,4 C 81 % 1007,4 hPa 0,0 mm 0 min 0 min 0,000 mm 0,0 UV-I 0 W/m 7,3 C 100,00 %
14/01/2020 04:28 10,4 C 81 % 1007,4 hPa 0,0 mm 0 min 0 min 0,000 mm 0,0 UV-I 0 W/m 7,3 C 96,00 %
14/01/2020 04:27 10,4 C 81 % 1007,5 hPa 0,0 mm 0 min 0 min 0,000 mm 0,0 UV-I 0 W/m 7,3 C 100,00 %
14/01/2020 04:26 10,4 C 81 % 1007,5 hPa 0,0 mm 0 min 0 min 0,000 mm 0,0 UV-I 0 W/m 7,3 C 100,00 %
14/01/2020 04:25 10,4 C 81 % 1007,6 hPa 0,0 mm 0 min 0 min 0,000 mm 0,0 UV-I 0 W/m 7,3 C 100,00 %
14/01/2020 04:24 10,3 C 81 % 1007,5 hPa 0,0 mm 0 min 0 min 0,000 mm 0,0 UV-I 0 W/m 7,2 C 91,67 %
14/01/2020 04:23 10,3 C 81 % 1007,5 hPa 0,0 mm 0 min 0 min 0,000 mm 0,0 UV-I 0 W/m 7,2 C 100,00 %
14/01/2020 04:22 10,3 C 81 % 1007,6 hPa 0,0 mm 0 min 0 min 0,000 mm 0,0 UV-I 0 W/m 7,2 C 95,83 %
14/01/2020 04:21 10,3 C 81 % 1007,6 hPa 0,0 mm 0 min 0 min 0,000 mm 0,0 UV-I 0 W/m 7,2 C 100,00 %
14/01/2020 04:20 10,3 C 81 % 1007,5 hPa 0,0 mm 0 min 0 min 0,000 mm 0,0 UV-I 0 W/m 7,2 C 91,67 %
14/01/2020 04:19 10,3 C 81 % 1007,6 hPa 0,0 mm 0 min 0 min 0,000 mm 0,0 UV-I 0 W/m 7,2 C 96,00 %
14/01/2020 04:18 10,3 C 81 % 1007,5 hPa 0,0 mm 0 min 0 min 0,000 mm 0,0 UV-I 0 W/m 7,2 C 97,06 %
14/01/2020 04:17 10,3 C 81 % 1007,6 hPa 0,0 mm 0 min 0 min 0,000 mm 0,0 UV-I 0 W/m 7,2 C 92,86 %
14/01/2020 04:16 10,3 C 81 % 1007,5 hPa 0,0 mm 0 min 0 min 0,000 mm 0,0 UV-I 0 W/m 7,2 C 100,00 %
14/01/2020 04:15 10,3 C 81 % 1007,6 hPa 0,0 mm 0 min 0 min 0,000 mm 0,0 UV-I 0 W/m 7,2 C 93,33 %
14/01/2020 04:14 10,3 C 81 % 1007,5 hPa 0,0 mm 0 min 0 min 0,000 mm 0,0 UV-I 0 W/m 7,2 C 97,30 %
14/01/2020 04:13 10,3 C 81 % 1007,3 hPa 0,0 mm 0 min 0 min 0,000 mm 0,0 UV-I 0 W/m 7,2 C 100,00 %
14/01/2020 04:12 10,3 C 81 % 1007,5 hPa 0,0 mm 0 min 0 min 0,000 mm 0,0 UV-I 0 W/m 7,2 C 92,00 %
14/01/2020 04:11 10,3 C 81 % 1007,5 hPa 0,0 mm 0 min 0 min 0,000 mm 0,0 UV-I 0 W/m 7,2 C 95,83 %
14/01/2020 04:10 10,3 C 81 % 1007,5 hPa 0,0 mm 0 min 0 min 0,000 mm 0,0 UV-I 0 W/m 7,2 C 95,83 %
14/01/2020 04:09 10,3 C 81 % 1007,6 hPa 0,0 mm 0 min 0 min 0,000 mm 0,0 UV-I 0 W/m 7,2 C 100,00 %
14/01/2020 04:08 10,3 C 81 % 1007,5 hPa 0,0 mm 0 min 0 min 0,000 mm 0,0 UV-I 0 W/m 7,2 C 100,00 %
14/01/2020 04:07 10,3 C 82 % 1007,6 hPa 0,0 mm 0 min 0 min 0,000 mm 0,0 UV-I 0 W/m 7,4 C 100,00 %
14/01/2020 04:06 10,3 C 82 % 1007,6 hPa 0,0 mm 0 min 0 min 0,000 mm 0,0 UV-I 0 W/m 7,4 C 95,83 %
14/01/2020 04:05 10,3 C 82 % 1007,7 hPa 0,0 mm 0 min 0 min 0,000 mm 0,0 UV-I 0 W/m 7,4 C 95,83 %
14/01/2020 04:04 10,3 C 82 % 1007,8 hPa 0,0 mm 0 min 0 min 0,000 mm 0,0 UV-I 0 W/m 7,4 C 100,00 %
14/01/2020 04:03 10,3 C 82 % 1007,7 hPa 0,0 mm 0 min 0 min 0,000 mm 0,0 UV-I 0 W/m 7,4 C 95,83 %
14/01/2020 04:02 10,3 C 82 % 1007,7 hPa 0,0 mm 0 min 0 min 0,000 mm 0,0 UV-I 0 W/m 7,4 C 100,00 %
14/01/2020 04:01 10,3 C 82 % 1007,7 hPa 0,0 mm 0 min 0 min 0,000 mm 0,0 UV-I 0 W/m 7,4 C 90,91 %
14/01/2020 04:00 10,3 C 82 % 1007,8 hPa 0,0 mm 0 min 0 min 0,000 mm 0,0 UV-I 0 W/m 7,4 C 100,00 %
14/01/2020 03:59 10,3 C 82 % 1007,8 hPa 0,0 mm 0 min 0 min 0,000 mm 0,0 UV-I 0 W/m 7,4 C 95,83 %
14/01/2020 03:58 10,3 C 82 % 1007,9 hPa 0,0 mm 0 min 0 min 0,000 mm 0,0 UV-I 0 W/m 7,4 C 100,00 %
14/01/2020 03:57 10,3 C 82 % 1007,9 hPa 0,0 mm 0 min 0 min 0,000 mm 0,0 UV-I 0 W/m 7,4 C 95,83 %
14/01/2020 03:56 10,3 C 82 % 1007,9 hPa 0,0 mm 0 min 0 min 0,000 mm 0,0 UV-I 0 W/m 7,4 C 95,83 %
14/01/2020 03:55 10,2 C 82 % 1007,9 hPa 0,0 mm 0 min 0 min 0,000 mm 0,0 UV-I 0 W/m 7,3 C 95,83 %
14/01/2020 03:54 10,2 C 82 % 1007,9 hPa 0,0 mm 0 min 0 min 0,000 mm 0,0 UV-I 0 W/m 7,3 C 96,43 %
14/01/2020 03:53 10,2 C 82 % 1007,9 hPa 0,0 mm 0 min 0 min 0,000 mm 0,0 UV-I 0 W/m 7,3 C 95,83 %
14/01/2020 03:52 10,2 C 82 % 1007,9 hPa 0,0 mm 0 min 0 min 0,000 mm 0,0 UV-I 0 W/m 7,3 C 92,00 %
14/01/2020 03:51 10,2 C 82 % 1007,9 hPa 0,0 mm 0 min 0 min 0,000 mm 0,0 UV-I 0 W/m 7,3 C 100,00 %
14/01/2020 03:50 10,2 C 82 % 1007,9 hPa 0,0 mm 0 min 0 min 0,000 mm 0,0 UV-I 0 W/m 7,3 C 91,67 %
14/01/2020 03:49 10,2 C 82 % 1007,9 hPa 0,0 mm 0 min 0 min 0,000 mm 0,0 UV-I 0 W/m 7,3 C 97,06 %
14/01/2020 03:48 10,2 C 82 % 1007,9 hPa 0,0 mm 0 min 0 min 0,000 mm 0,0 UV-I 0 W/m 7,3 C 91,67 %
14/01/2020 03:47 10,2 C 83 % 1007,9 hPa 0,0 mm 0 min 0 min 0,000 mm 0,0 UV-I 0 W/m 7,4 C 100,00 %
14/01/2020 03:46 10,1 C 83 % 1008,0 hPa 0,0 mm 0 min 0 min 0,000 mm 0,0 UV-I 0 W/m 7,3 C 92,00 %
14/01/2020 03:45 10,1 C 83 % 1008,1 hPa 0,0 mm 0 min 0 min 0,000 mm 0,0 UV-I 0 W/m 7,3 C 95,83 %
14/01/2020 03:44 10,1 C 83 % 1008,1 hPa 0,0 mm 0 min 0 min 0,000 mm 0,0 UV-I 0 W/m 7,3 C 100,00 %
14/01/2020 03:43 10,1 C 83 % 1008,1 hPa 0,0 mm 0 min 0 min 0,000 mm 0,0 UV-I 0 W/m 7,3 C 96,00 %
14/01/2020 03:42 10,1 C 83 % 1008,1 hPa 0,0 mm 0 min 0 min 0,000 mm 0,0 UV-I 0 W/m 7,3 C 100,00 %
14/01/2020 03:41 10,1 C 83 % 1008,1 hPa 0,0 mm 0 min 0 min 0,000 mm 0,0 UV-I 0 W/m 7,3 C 92,31 %
14/01/2020 03:40 10,1 C 83 % 1008,1 hPa 0,0 mm 0 min 0 min 0,000 mm 0,0 UV-I 0 W/m 7,3 C 95,83 %
14/01/2020 03:39 10,1 C 83 % 1008,2 hPa 0,0 mm 0 min 0 min 0,000 mm 0,0 UV-I 0 W/m 7,3 C 91,67 %
14/01/2020 03:38 10,1 C 83 % 1008,2 hPa 0,0 mm 0 min 0 min 0,000 mm 0,0 UV-I 0 W/m 7,3 C 100,00 %
14/01/2020 03:37 10,1 C 83 % 1008,1 hPa 0,0 mm 0 min 0 min 0,000 mm 0,0 UV-I 0 W/m 7,3 C 91,67 %
14/01/2020 03:36 10,1 C 83 % 1008,1 hPa 0,0 mm 0 min 0 min 0,000 mm 0,0 UV-I 0 W/m 7,3 C 96,00 %
14/01/2020 03:35 10,1 C 83 % 1008,2 hPa 0,0 mm 0 min 0 min 0,000 mm 0,0 UV-I 0 W/m 7,3 C 100,00 %
14/01/2020 03:34 10,1 C 83 % 1008,2 hPa 0,0 mm 0 min 0 min 0,000 mm 0,0 UV-I 0 W/m 7,3 C 96,00 %
14/01/2020 03:33 10,1 C 83 % 1008,2 hPa 0,0 mm 0 min 0 min 0,000 mm 0,0 UV-I 0 W/m 7,3 C 100,00 %
14/01/2020 03:32 10,1 C 83 % 1008,1 hPa 0,0 mm 0 min 0 min 0,000 mm 0,0 UV-I 0 W/m 7,3 C 95,83 %
14/01/2020 03:31 10,1 C 83 % 1008,2 hPa 0,0 mm 0 min 0 min 0,000 mm 0,0 UV-I 0 W/m 7,3 C 97,06 %
14/01/2020 03:30 10,1 C 83 % 1008,2 hPa 0,0 mm 0 min 0 min 0,000 mm 0,0 UV-I 0 W/m 7,3 C 100,00 %
14/01/2020 03:29 10,0 C 83 % 1008,2 hPa 0,0 mm 0 min 0 min 0,000 mm 0,0 UV-I 0 W/m 7,2 C 95,83 %
14/01/2020 03:28 10,1 C 83 % 1008,2 hPa 0,0 mm 0 min 0 min 0,000 mm 0,0 UV-I 0 W/m 7,3 C 100,00 %
14/01/2020 03:27 10,1 C 83 % 1008,2 hPa 0,0 mm 0 min 0 min 0,000 mm 0,0 UV-I 0 W/m 7,3 C 96,30 %
14/01/2020 03:26 10,0 C 83 % 1008,1 hPa 0,0 mm 0 min 0 min 0,000 mm 0,0 UV-I 0 W/m 7,2 C 100,00 %
14/01/2020 03:25 10,0 C 83 % 1008,2 hPa 0,0 mm 0 min 0 min 0,000 mm 0,0 UV-I 0 W/m 7,2 C 94,44 %
14/01/2020 03:24 10,0 C 83 % 1008,3 hPa 0,0 mm 0 min 0 min 0,000 mm 0,0 UV-I 0 W/m 7,2 C 100,00 %
14/01/2020 03:23 10,0 C 83 % 1008,2 hPa 0,0 mm 0 min 0 min 0,000 mm 0,0 UV-I 0 W/m 7,2 C 91,67 %
14/01/2020 03:22 10,0 C 83 % 1008,3 hPa 0,0 mm 0 min 0 min 0,000 mm 0,0 UV-I 0 W/m 7,2 C 92,00 %
14/01/2020 03:21 10,0 C 83 % 1008,2 hPa 0,0 mm 0 min 0 min 0,000 mm 0,0 UV-I 0 W/m 7,2 C 100,00 %
14/01/2020 03:20 10,0 C 83 % 1008,3 hPa 0,0 mm 0 min 0 min 0,000 mm 0,0 UV-I 0 W/m 7,2 C 87,50 %
14/01/2020 03:19 10,0 C 83 % 1008,2 hPa 0,0 mm 0 min 0 min 0,000 mm 0,0 UV-I 0 W/m 7,2 C 100,00 %
14/01/2020 03:18 9,9 C 83 % 1008,2 hPa 0,0 mm 0 min 0 min 0,000 mm 0,0 UV-I 0 W/m 7,2 C 95,83 %
14/01/2020 03:17 9,9 C 83 % 1008,2 hPa 0,0 mm 0 min 0 min 0,000 mm 0,0 UV-I 0 W/m 7,2 C 96,00 %
14/01/2020 03:16 9,9 C 83 % 1008,3 hPa 0,0 mm 0 min 0 min 0,000 mm 0,0 UV-I 0 W/m 7,2 C 90,91 %
14/01/2020 03:15 9,9 C 82 % 1008,3 hPa 0,0 mm 0 min 0 min 0,000 mm 0,0 UV-I 0 W/m 7,0 C 96,00 %
14/01/2020 03:14 9,9 C 82 % 1008,3 hPa 0,0 mm 0 min 0 min 0,000 mm 0,0 UV-I 0 W/m 7,0 C 91,30 %
14/01/2020 03:13 9,9 C 82 % 1008,3 hPa 0,0 mm 0 min 0 min 0,000 mm 0,0 UV-I 0 W/m 7,0 C 100,00 %
14/01/2020 03:12 9,9 C 82 % 1008,4 hPa 0,0 mm 0 min 0 min 0,000 mm 0,0 UV-I 0 W/m 7,0 C 89,29 %
14/01/2020 03:11 9,9 C 83 % 1008,4 hPa 0,0 mm 0 min 0 min 0,000 mm 0,0 UV-I 0 W/m 7,2 C 100,00 %
14/01/2020 03:10 9,9 C 82 % 1008,3 hPa 0,0 mm 0 min 0 min 0,000 mm 0,0 UV-I 0 W/m 7,0 C 100,00 %
14/01/2020 03:09 9,9 C 82 % 1008,4 hPa 0,0 mm 0 min 0 min 0,000 mm 0,0 UV-I 0 W/m 7,0 C 95,83 %
14/01/2020 03:08 9,9 C 83 % 1008,4 hPa 0,0 mm 0 min 0 min 0,000 mm 0,0 UV-I 0 W/m 7,2 C 100,00 %
14/01/2020 03:07 9,9 C 83 % 1008,4 hPa 0,0 mm 0 min 0 min 0,000 mm 0,0 UV-I 0 W/m 7,2 C 95,83 %
14/01/2020 03:06 9,9 C 82 % 1008,5 hPa 0,0 mm 0 min 0 min 0,000 mm 0,0 UV-I 0 W/m 7,0 C 96,43 %
14/01/2020 03:05 9,9 C 82 % 1008,5 hPa 0,0 mm 0 min 0 min 0,000 mm 0,0 UV-I 0 W/m 7,0 C 100,00 %
14/01/2020 03:04 9,9 C 82 % 1008,4 hPa 0,0 mm 0 min 0 min 0,000 mm 0,0 UV-I 0 W/m 7,0 C 100,00 %
14/01/2020 03:03 9,9 C 82 % 1008,5 hPa 0,0 mm 0 min 0 min 0,000 mm 0,0 UV-I 0 W/m 7,0 C 96,77 %
14/01/2020 03:02 9,9 C 82 % 1008,5 hPa 0,0 mm 0 min 0 min 0,000 mm 0,0 UV-I 0 W/m 7,0 C 100,00 %
14/01/2020 03:01 9,9 C 82 % 1008,5 hPa 0,0 mm 0 min 0 min 0,000 mm 0,0 UV-I 0 W/m 7,0 C 100,00 %
14/01/2020 03:00 9,9 C 82 % 1008,4 hPa 0,0 mm 0 min 0 min 0,000 mm 0,0 UV-I 0 W/m 7,0 C 96,00 %
14/01/2020 02:59 9,9 C 82 % 1008,5 hPa 0,0 mm 0 min 0 min 0,000 mm 0,0 UV-I 0 W/m 7,0 C 100,00 %
14/01/2020 02:58 9,9 C 82 % 1008,4 hPa 0,0 mm 0 min 0 min 0,000 mm 0,0 UV-I 0 W/m 7,0 C 92,00 %
14/01/2020 02:57 9,9 C 82 % 1008,5 hPa 0,0 mm 0 min 0 min 0,000 mm 0,0 UV-I 0 W/m 7,0 C 100,00 %
14/01/2020 02:56 9,9 C 82 % 1008,5 hPa 0,0 mm 0 min 0 min 0,000 mm 0,0 UV-I 0 W/m 7,0 C 100,00 %
14/01/2020 02:55 9,9 C 82 % 1008,5 hPa 0,0 mm 0 min 0 min 0,000 mm 0,0 UV-I 0 W/m 7,0 C 92,31 %
14/01/2020 02:54 9,9 C 82 % 1008,5 hPa 0,0 mm 0 min 0 min 0,000 mm 0,0 UV-I 0 W/m 7,0 C 100,00 %
14/01/2020 02:53 9,9 C 82 % 1008,5 hPa 0,0 mm 0 min 0 min 0,000 mm 0,0 UV-I 0 W/m 7,0 C 100,00 %
14/01/2020 02:52 9,9 C 82 % 1008,4 hPa 0,0 mm 0 min 0 min 0,000 mm 0,0 UV-I 0 W/m 7,0 C 90,91 %
14/01/2020 02:51 9,9 C 82 % 1008,6 hPa 0,0 mm 0 min 0 min 0,000 mm 0,0 UV-I 0 W/m 7,0 C 100,00 %
14/01/2020 02:50 9,9 C 82 % 1008,4 hPa 0,0 mm 0 min 0 min 0,000 mm 0,0 UV-I 0 W/m 7,0 C 100,00 %
14/01/2020 02:49 9,9 C 82 % 1008,5 hPa 0,0 mm 0 min 0 min 0,000 mm 0,0 UV-I 0 W/m 7,0 C 92,59 %
14/01/2020 02:48 9,9 C 82 % 1008,5 hPa 0,0 mm 0 min 0 min 0,000 mm 0,0 UV-I 0 W/m 7,0 C 96,00 %
14/01/2020 02:47 9,9 C 82 % 1008,5 hPa 0,0 mm 0 min 0 min 0,000 mm 0,0 UV-I 0 W/m 7,0 C 91,67 %
14/01/2020 02:46 9,9 C 82 % 1008,4 hPa 0,0 mm 0 min 0 min 0,000 mm 0,0 UV-I 0 W/m 7,0 C 96,15 %
14/01/2020 02:45 9,9 C 82 % 1008,4 hPa 0,2 mm 0 min 0 min 0,000 mm 0,0 UV-I 0 W/m 7,0 C 100,00 %
14/01/2020 02:44 9,9 C 82 % 1008,6 hPa 0,0 mm 0 min 0 min 0,000 mm 0,0 UV-I 0 W/m 7,0 C 86,67 %
14/01/2020 02:43 9,9 C 82 % 1008,5 hPa 0,0 mm 0 min 0 min 0,000 mm 0,0 UV-I 0 W/m 7,0 C 100,00 %
14/01/2020 02:42 10,0 C 82 % 1008,5 hPa 0,0 mm 0 min 0 min 0,000 mm 0,0 UV-I 0 W/m 7,1 C 94,74 %
14/01/2020 02:41 10,0 C 82 % 1008,5 hPa 0,0 mm 0 min 0 min 0,000 mm 0,0 UV-I 0 W/m 7,1 C 97,38 %
14/01/2020 02:40 10,0 C 82 % 1008,5 hPa 0,0 mm 0 min 0 min 0,000 mm 0,0 UV-I 0 W/m 7,1 C 92,59 %
14/01/2020 02:39 10,0 C 82 % 1008,5 hPa 0,0 mm 0 min 0 min 0,000 mm 0,0 UV-I 0 W/m 7,1 C 100,00 %
14/01/2020 02:38 10,0 C 82 % 1008,5 hPa 0,0 mm 0 min 0 min 0,000 mm 0,0 UV-I 0 W/m 7,1 C 95,83 %
14/01/2020 02:37 10,0 C 82 % 1008,6 hPa 0,0 mm 0 min 0 min 0,000 mm 0,0 UV-I 0 W/m 7,1 C 100,00 %
14/01/2020 02:36 10,0 C 82 % 1008,6 hPa 0,0 mm 0 min 0 min 0,000 mm 0,0 UV-I 0 W/m 7,1 C 96,15 %
14/01/2020 02:35 10,0 C 82 % 1008,6 hPa 0,0 mm 0 min 0 min 0,000 mm 0,0 UV-I 0 W/m 7,1 C 100,00 %
14/01/2020 02:34 10,0 C 82 % 1008,6 hPa 0,0 mm 0 min 0 min 0,000 mm 0,0 UV-I 0 W/m 7,1 C 96,00 %
14/01/2020 02:33 10,1 C 82 % 1008,7 hPa 0,0 mm 0 min 0 min 0,000 mm 0,0 UV-I 0 W/m 7,2 C 90,91 %
14/01/2020 02:32 10,1 C 82 % 1008,6 hPa 0,0 mm 0 min 0 min 0,000 mm 0,0 UV-I 0 W/m 7,2 C 96,00 %
14/01/2020 02:31 10,1 C 81 % 1008,6 hPa 0,0 mm 0 min 0 min 0,000 mm 0,0 UV-I 0 W/m 7,0 C 95,83 %
14/01/2020 02:30 10,1 C 81 % 1008,6 hPa 0,0 mm 0 min 0 min 0,000 mm 0,0 UV-I 0 W/m 7,0 C 96,30 %
14/01/2020 02:29 10,1 C 81 % 1008,5 hPa 0,0 mm 0 min 0 min 0,000 mm 0,0 UV-I 0 W/m 7,0 C 100,00 %
14/01/2020 02:28 10,1 C 81 % 1008,5 hPa 0,0 mm 0 min 0 min 0,000 mm 0,0 UV-I 0 W/m 7,0 C 100,00 %
14/01/2020 02:27 10,1 C 81 % 1008,6 hPa 0,0 mm 0 min 0 min 0,000 mm 0,0 UV-I 0 W/m 7,0 C 96,15 %
14/01/2020 02:26 10,2 C 81 % 1008,5 hPa 0,0 mm 0 min 0 min 0,000 mm 0,0 UV-I 0 W/m 7,1 C 100,00 %
14/01/2020 02:25 10,2 C 81 % 1008,7 hPa 0,0 mm 0 min 0 min 0,000 mm 0,0 UV-I 0 W/m 7,1 C 93,33 %
14/01/2020 02:24 10,2 C 81 % 1008,6 hPa 0,0 mm 0 min 0 min 0,000 mm 0,0 UV-I 0 W/m 7,1 C 96,55 %
14/01/2020 02:23 10,2 C 81 % 1008,6 hPa 0,0 mm 0 min 0 min 0,000 mm 0,0 UV-I 0 W/m 7,1 C 100,00 %
14/01/2020 02:22 10,2 C 81 % 1008,6 hPa 0,0 mm 0 min 0 min 0,000 mm 0,0 UV-I 0 W/m 7,1 C 88,00 %
14/01/2020 02:21 10,2 C 80 % 1008,6 hPa 0,0 mm 0 min 0 min 0,000 mm 0,0 UV-I 0 W/m 6,9 C 100,00 %
14/01/2020 02:20 10,2 C 80 % 1008,6 hPa 0,0 mm 0 min 0 min 0,000 mm 0,0 UV-I 0 W/m 6,9 C 96,43 %
14/01/2020 02:19 10,2 C 80 % 1008,5 hPa 0,0 mm 0 min 0 min 0,000 mm 0,0 UV-I 0 W/m 6,9 C 91,67 %
14/01/2020 02:18 10,2 C 80 % 1008,5 hPa 0,0 mm 0 min 0 min 0,000 mm 0,0 UV-I 0 W/m 6,9 C 100,00 %
14/01/2020 02:17 10,2 C 80 % 1008,6 hPa 0,0 mm 0 min 0 min 0,000 mm 0,0 UV-I 0 W/m 6,9 C 100,00 %
14/01/2020 02:16 10,2 C 80 % 1008,6 hPa 0,0 mm 0 min 0 min 0,000 mm 0,0 UV-I 0 W/m 6,9 C 87,50 %
14/01/2020 02:15 10,2 C 80 % 1008,6 hPa 0,0 mm 0 min 0 min 0,000 mm 0,0 UV-I 0 W/m 6,9 C 100,00 %
14/01/2020 02:14 10,2 C 80 % 1008,6 hPa 0,0 mm 0 min 0 min 0,000 mm 0,0 UV-I 0 W/m 6,9 C 90,91 %
14/01/2020 02:13 10,2 C 80 % 1008,7 hPa 0,0 mm 0 min 0 min 0,000 mm 0,0 UV-I 0 W/m 6,9 C 83,33 %
14/01/2020 02:12 10,2 C 80 % 1008,5 hPa 0,0 mm 0 min 0 min 0,000 mm 0,0 UV-I 0 W/m 6,9 C 95,83 %
14/01/2020 02:11 10,2 C 80 % 1008,5 hPa 0,0 mm 0 min 0 min 0,000 mm 0,0 UV-I 0 W/m 6,9 C 100,00 %
14/01/2020 02:10 10,2 C 80 % 1008,5 hPa 0,0 mm 0 min 0 min 0,000 mm 0,0 UV-I 0 W/m 6,9 C 88,00 %
14/01/2020 02:09 10,2 C 80 % 1008,6 hPa 0,0 mm 0 min 0 min 0,000 mm 0,0 UV-I 0 W/m 6,9 C 95,83 %
14/01/2020 02:08 10,2 C 80 % 1008,6 hPa 0,0 mm 0 min 0 min 0,000 mm 0,0 UV-I 0 W/m 6,9 C 96,00 %
14/01/2020 02:07 10,2 C 80 % 1008,5 hPa 0,0 mm 0 min 0 min 0,000 mm 0,0 UV-I 0 W/m 6,9 C 100,00 %
14/01/2020 02:06 10,2 C 80 % 1008,6 hPa 0,0 mm 0 min 0 min 0,000 mm 0,0 UV-I 0 W/m 6,9 C 96,67 %
14/01/2020 02:05 10,2 C 80 % 1008,6 hPa 0,0 mm 0 min 0 min 0,000 mm 0,0 UV-I 0 W/m 6,9 C 100,00 %
14/01/2020 02:04 10,2 C 80 % 1008,7 hPa 0,0 mm 0 min 0 min 0,000 mm 0,0 UV-I 0 W/m 6,9 C 92,59 %
14/01/2020 02:03 10,2 C 80 % 1008,7 hPa 0,0 mm 0 min 0 min 0,000 mm 0,0 UV-I 0 W/m 6,9 C 100,00 %
14/01/2020 02:02 10,2 C 80 % 1008,7 hPa 0,0 mm 0 min 0 min 0,000 mm 0,0 UV-I 0 W/m 6,9 C 100,00 %
14/01/2020 02:01 10,2 C 80 % 1008,6 hPa 0,0 mm 0 min 0 min 0,000 mm 0,0 UV-I 0 W/m 6,9 C 100,00 %
14/01/2020 02:00 10,2 C 80 % 1008,7 hPa 0,0 mm 0 min 0 min 0,000 mm 0,0 UV-I 0 W/m 6,9 C 100,00 %
14/01/2020 01:59 10,2 C 80 % 1008,7 hPa 0,0 mm 0 min 0 min 0,000 mm 0,0 UV-I 0 W/m 6,9 C 95,83 %
14/01/2020 01:58 10,2 C 80 % 1008,8 hPa 0,0 mm 0 min 0 min 0,000 mm 0,0 UV-I 0 W/m 6,9 C 100,00 %
14/01/2020 01:57 10,2 C 80 % 1008,7 hPa 0,0 mm 0 min 0 min 0,000 mm 0,0 UV-I 0 W/m 6,9 C 100,00 %
14/01/2020 01:56 10,2 C 80 % 1008,8 hPa 0,0 mm 0 min 0 min 0,000 mm 0,0 UV-I 0 W/m 6,9 C 96,43 %
14/01/2020 01:55 10,2 C 80 % 1008,8 hPa 0,0 mm 0 min 0 min 0,000 mm 0,0 UV-I 0 W/m 6,9 C 95,83 %
14/01/2020 01:54 10,2 C 80 % 1008,8 hPa 0,0 mm 0 min 0 min 0,000 mm 0,0 UV-I 0 W/m 6,9 C 100,00 %
14/01/2020 01:53 10,2 C 80 % 1008,8 hPa 0,0 mm 0 min 0 min 0,000 mm 0,0 UV-I 0 W/m 6,9 C 100,00 %
14/01/2020 01:52 10,2 C 80 % 1008,7 hPa 0,0 mm 0 min 0 min 0,000 mm 0,0 UV-I 0 W/m 6,9 C 95,65 %
14/01/2020 01:51 10,2 C 80 % 1008,7 hPa 0,0 mm 0 min 0 min 0,000 mm 0,0 UV-I 0 W/m 6,9 C 100,00 %
14/01/2020 01:50 10,2 C 80 % 1008,7 hPa 0,0 mm 0 min 0 min 0,000 mm 0,0 UV-I 0 W/m 6,9 C 100,00 %
14/01/2020 01:49 10,2 C 80 % 1008,7 hPa 0,0 mm 0 min 0 min 0,000 mm 0,0 UV-I 0 W/m 6,9 C 100,00 %
14/01/2020 01:48 10,2 C 80 % 1008,9 hPa 0,0 mm 0 min 0 min 0,000 mm 0,0 UV-I 0 W/m 6,9 C 100,00 %
14/01/2020 01:47 10,2 C 80 % 1008,8 hPa 0,0 mm 0 min 0 min 0,000 mm 0,0 UV-I 0 W/m 6,9 C 100,00 %
14/01/2020 01:46 10,2 C 80 % 1008,8 hPa 0,0 mm 0 min 0 min 0,000 mm 0,0 UV-I 0 W/m 6,9 C 95,83 %
14/01/2020 01:45 10,1 C 80 % 1008,8 hPa 0,0 mm 0 min 0 min 0,000 mm 0,0 UV-I 0 W/m 6,8 C 100,00 %
14/01/2020 01:44 10,1 C 80 % 1008,8 hPa 0,0 mm 0 min 0 min 0,000 mm 0,0 UV-I 0 W/m 6,8 C 100,00 %
14/01/2020 01:43 10,1 C 80 % 1008,8 hPa 0,0 mm 0 min 0 min 0,000 mm 0,0 UV-I 0 W/m 6,8 C 96,30 %
14/01/2020 01:42 10,1 C 80 % 1008,7 hPa 0,0 mm 0 min 0 min 0,000 mm 0,0 UV-I 0 W/m 6,8 C 92,00 %
14/01/2020 01:41 10,1 C 80 % 1008,7 hPa 0,0 mm 0 min 0 min 0,000 mm 0,0 UV-I 0 W/m 6,8 C 100,00 %
14/01/2020 01:40 10,1 C 80 % 1008,8 hPa 0,0 mm 0 min 0 min 0,000 mm 0,0 UV-I 0 W/m 6,8 C 95,83 %
14/01/2020 01:39 10,1 C 80 % 1008,9 hPa 0,0 mm 0 min 0 min 0,000 mm 0,0 UV-I 0 W/m 6,8 C 100,00 %
14/01/2020 01:38 10,1 C 80 % 1008,8 hPa 0,0 mm 0 min 0 min 0,000 mm 0,0 UV-I 0 W/m 6,8 C 96,67 %
14/01/2020 01:37 10,1 C 81 % 1008,8 hPa 0,0 mm 0 min 0 min 0,000 mm 0,0 UV-I 0 W/m 7,0 C 96,43 %
14/01/2020 01:36 10,1 C 81 % 1008,8 hPa 0,0 mm 0 min 0 min 0,000 mm 0,0 UV-I 0 W/m 7,0 C 95,83 %
14/01/2020 01:35 10,1 C 81 % 1008,8 hPa 0,0 mm 0 min 0 min 0,000 mm 0,0 UV-I 0 W/m 7,0 C 100,00 %
14/01/2020 01:34 10,1 C 81 % 1008,8 hPa 0,0 mm 0 min 0 min 0,000 mm 0,0 UV-I 0 W/m 7,0 C 95,83 %
14/01/2020 01:33 10,1 C 81 % 1008,8 hPa 0,0 mm 0 min 0 min 0,000 mm 0,0 UV-I 0 W/m 7,0 C 100,00 %
14/01/2020 01:32 10,1 C 81 % 1008,8 hPa 0,0 mm 0 min 0 min 0,000 mm 0,0 UV-I 0 W/m 7,0 C 100,00 %
14/01/2020 01:31 10,1 C 81 % 1008,9 hPa 0,0 mm 0 min 0 min 0,000 mm 0,0 UV-I 0 W/m 7,0 C 100,00 %
14/01/2020 01:30 10,1 C 81 % 1008,9 hPa 0,0 mm 0 min 0 min 0,000 mm 0,0 UV-I 0 W/m 7,0 C 100,00 %
14/01/2020 01:29 10,1 C 81 % 1008,9 hPa 0,0 mm 0 min 0 min 0,000 mm 0,0 UV-I 0 W/m 7,0 C 96,15 %
14/01/2020 01:28 10,1 C 81 % 1008,8 hPa 0,0 mm 0 min 0 min 0,000 mm 0,0 UV-I 0 W/m 7,0 C 100,00 %
14/01/2020 01:27 10,1 C 81 % 1008,9 hPa 0,0 mm 0 min 0 min 0,000 mm 0,0 UV-I 0 W/m 7,0 C 100,00 %
14/01/2020 01:25 10,0 C 81 % 1008,9 hPa 0,0 mm 0 min 0 min 0,000 mm 0,0 UV-I 0 W/m 6,9 C 96,00 %
14/01/2020 01:24 10,0 C 81 % 1009,0 hPa 0,0 mm 0 min 0 min 0,000 mm 0,0 UV-I 0 W/m 6,9 C 100,00 %
14/01/2020 01:23 10,0 C 81 % 1009,0 hPa 0,0 mm 0 min 0 min 0,000 mm 0,0 UV-I 0 W/m 6,9 C 100,00 %
14/01/2020 01:22 9,9 C 81 % 1008,9 hPa 0,0 mm 0 min 0 min 0,000 mm 0,0 UV-I 0 W/m 6,8 C 100,00 %
14/01/2020 01:21 9,9 C 82 % 1009,0 hPa 0,0 mm 0 min 0 min 0,000 mm 0,0 UV-I 0 W/m 7,0 C 100,00 %
14/01/2020 01:20 9,9 C 82 % 1009,0 hPa 0,0 mm 0 min 0 min 0,000 mm 0,0 UV-I 0 W/m 7,0 C 100,00 %
14/01/2020 01:19 9,9 C 82 % 1009,0 hPa 0,0 mm 0 min 0 min 0,000 mm 0,0 UV-I 0 W/m 7,0 C 96,88 %
14/01/2020 01:18 9,9 C 82 % 1009,0 hPa 0,0 mm 0 min 0 min 0,000 mm 0,0 UV-I 0 W/m 7,0 C 100,00 %
14/01/2020 01:17 9,9 C 82 % 1009,0 hPa 0,0 mm 0 min 0 min 0,000 mm 0,0 UV-I 0 W/m 7,0 C 100,00 %
14/01/2020 01:16 9,9 C 82 % 1009,0 hPa 0,0 mm 0 min 0 min 0,000 mm 0,0 UV-I 0 W/m 7,0 C 91,67 %
14/01/2020 01:15 9,9 C 82 % 1009,1 hPa 0,0 mm 0 min 0 min 0,000 mm 0,0 UV-I 0 W/m 7,0 C 100,00 %
14/01/2020 01:14 9,9 C 82 % 1009,1 hPa 0,0 mm 0 min 0 min 0,000 mm 0,0 UV-I 0 W/m 7,0 C 96,97 %
14/01/2020 01:13 9,9 C 82 % 1009,2 hPa 0,0 mm 0 min 0 min 0,000 mm 0,0 UV-I 0 W/m 7,0 C 100,00 %
14/01/2020 01:12 9,9 C 82 % 1009,1 hPa 0,0 mm 0 min 0 min 0,000 mm 0,0 UV-I 0 W/m 7,0 C 95,83 %
14/01/2020 01:11 9,9 C 82 % 1009,1 hPa 0,0 mm 0 min 0 min 0,000 mm 0,0 UV-I 0 W/m 7,0 C 96,00 %
14/01/2020 01:10 9,9 C 82 % 1009,1 hPa 0,0 mm 0 min 0 min 0,000 mm 0,0 UV-I 0 W/m 7,0 C 95,83 %
14/01/2020 01:09 9,9 C 82 % 1009,1 hPa 0,0 mm 0 min 0 min 0,000 mm 0,0 UV-I 0 W/m 7,0 C 91,67 %
14/01/2020 01:08 9,9 C 82 % 1009,1 hPa 0,0 mm 0 min 0 min 0,000 mm 0,0 UV-I 0 W/m 7,0 C 96,00 %
14/01/2020 01:07 9,9 C 82 % 1009,1 hPa 0,0 mm 0 min 0 min 0,000 mm 0,0 UV-I 0 W/m 7,0 C 95,65 %
14/01/2020 01:06 9,9 C 82 % 1009,1 hPa 0,0 mm 0 min 0 min 0,000 mm 0,0 UV-I 0 W/m 7,0 C 96,00 %
14/01/2020 01:05 9,9 C 82 % 1009,1 hPa 0,0 mm 0 min 0 min 0,000 mm 0,0 UV-I 0 W/m 7,0 C 96,00 %
14/01/2020 01:04 9,9 C 83 % 1009,2 hPa 0,0 mm 0 min 0 min 0,000 mm 0,0 UV-I 0 W/m 7,2 C 95,83 %
14/01/2020 01:03 9,9 C 83 % 1009,2 hPa 0,0 mm 0 min 0 min 0,000 mm 0,0 UV-I 0 W/m 7,2 C 100,00 %
14/01/2020 01:02 9,9 C 83 % 1009,2 hPa 0,0 mm 0 min 0 min 0,000 mm 0,0 UV-I 0 W/m 7,2 C 100,00 %
14/01/2020 01:01 9,9 C 83 % 1009,2 hPa 0,0 mm 0 min 0 min 0,000 mm 0,0 UV-I 0 W/m 7,2 C 96,30 %
14/01/2020 01:00 9,9 C 83 % 1009,3 hPa 0,0 mm 0 min 0 min 0,000 mm 0,0 UV-I 0 W/m 7,2 C 100,00 %
14/01/2020 00:59 9,9 C 83 % 1009,3 hPa 0,0 mm 0 min 0 min 0,000 mm 0,0 UV-I 0 W/m 7,2 C 97,44 %
14/01/2020 00:58 9,9 C 83 % 1009,4 hPa 0,0 mm 0 min 0 min 0,000 mm 0,0 UV-I 0 W/m 7,2 C 97,52 %
14/01/2020 00:57 9,9 C 83 % 1009,4 hPa 0,0 mm 0 min 0 min 0,000 mm 0,0 UV-I 0 W/m 7,2 C 100,00 %
14/01/2020 00:56 9,9 C 83 % 1009,3 hPa 0,0 mm 0 min 0 min 0,000 mm 0,0 UV-I 0 W/m 7,2 C 100,00 %
14/01/2020 00:55 9,9 C 84 % 1009,5 hPa 0,0 mm 0 min 0 min 0,000 mm 0,0 UV-I 0 W/m 7,3 C 95,65 %
14/01/2020 00:54 9,9 C 84 % 1009,4 hPa 0,0 mm 0 min 0 min 0,000 mm 0,0 UV-I 0 W/m 7,3 C 100,00 %
14/01/2020 00:53 9,9 C 84 % 1009,3 hPa 0,0 mm 0 min 0 min 0,000 mm 0,0 UV-I 0 W/m 7,3 C 95,83 %
14/01/2020 00:52 9,9 C 84 % 1009,4 hPa 0,0 mm 0 min 0 min 0,000 mm 0,0 UV-I 0 W/m 7,3 C 100,00 %
14/01/2020 00:51 9,9 C 84 % 1009,5 hPa 0,0 mm 0 min 0 min 0,000 mm 0,0 UV-I 0 W/m 7,3 C 100,00 %
14/01/2020 00:50 9,9 C 84 % 1009,5 hPa 0,0 mm 0 min 0 min 0,000 mm 0,0 UV-I 0 W/m 7,3 C 100,00 %
14/01/2020 00:49 9,9 C 84 % 1009,5 hPa 0,0 mm 0 min 0 min 0,000 mm 0,0 UV-I 0 W/m 7,3 C 96,00 %
14/01/2020 00:48 9,9 C 84 % 1009,6 hPa 0,0 mm 0 min 0 min 0,000 mm 0,0 UV-I 0 W/m 7,3 C 100,00 %
14/01/2020 00:47 9,9 C 84 % 1009,7 hPa 0,0 mm 0 min 0 min 0,000 mm 0,0 UV-I 0 W/m 7,3 C 96,00 %
14/01/2020 00:46 9,9 C 84 % 1009,5 hPa 0,0 mm 0 min 0 min 0,000 mm 0,0 UV-I 0 W/m 7,3 C 100,00 %
14/01/2020 00:45 9,9 C 84 % 1009,6 hPa 0,0 mm 0 min 0 min 0,000 mm 0,0 UV-I 0 W/m 7,3 C 92,00 %
14/01/2020 00:44 9,9 C 84 % 1009,6 hPa 0,0 mm 0 min 0 min 0,000 mm 0,0 UV-I 0 W/m 7,3 C 100,00 %
14/01/2020 00:43 9,9 C 84 % 1009,5 hPa 0,0 mm 0 min 0 min 0,000 mm 0,0 UV-I 0 W/m 7,3 C 95,83 %
14/01/2020 00:42 9,9 C 84 % 1009,5 hPa 0,0 mm 0 min 0 min 0,000 mm 0,0 UV-I 0 W/m 7,3 C 100,00 %
14/01/2020 00:41 9,9 C 84 % 1009,5 hPa 0,0 mm 0 min 0 min 0,000 mm 0,0 UV-I 0 W/m 7,3 C 100,00 %
14/01/2020 00:40 9,9 C 84 % 1009,5 hPa 0,0 mm 0 min 0 min 0,000 mm 0,0 UV-I 0 W/m 7,3 C 96,00 %
14/01/2020 00:39 9,9 C 85 % 1009,5 hPa 0,0 mm 0 min 0 min 0,000 mm 0,0 UV-I 0 W/m 7,5 C 100,00 %
14/01/2020 00:38 9,9 C 85 % 1009,4 hPa 0,0 mm 0 min 0 min 0,000 mm 0,0 UV-I 0 W/m 7,5 C 96,77 %
14/01/2020 00:37 9,9 C 85 % 1009,5 hPa 0,0 mm 0 min 0 min 0,000 mm 0,0 UV-I 0 W/m 7,5 C 100,00 %
14/01/2020 00:36 9,9 C 85 % 1009,4 hPa 0,0 mm 0 min 0 min 0,000 mm 0,0 UV-I 0 W/m 7,5 C 100,00 %
14/01/2020 00:35 9,9 C 85 % 1009,5 hPa 0,0 mm 0 min 0 min 0,000 mm 0,0 UV-I 0 W/m 7,5 C 92,00 %
14/01/2020 00:34 9,9 C 85 % 1009,5 hPa 0,0 mm 0 min 0 min 0,000 mm 0,0 UV-I 0 W/m 7,5 C 93,55 %
14/01/2020 00:33 9,9 C 85 % 1009,5 hPa 0,0 mm 0 min 0 min 0,000 mm 0,0 UV-I 0 W/m 7,5 C 100,00 %
14/01/2020 00:32 9,9 C 85 % 1009,6 hPa 0,0 mm 0 min 0 min 0,000 mm 0,0 UV-I 0 W/m 7,5 C 96,30 %
14/01/2020 00:31 9,9 C 85 % 1009,6 hPa 0,0 mm 0 min 0 min 0,000 mm 0,0 UV-I 0 W/m 7,5 C 96,15 %
14/01/2020 00:30 9,9 C 85 % 1009,7 hPa 0,0 mm 0 min 0 min 0,000 mm 0,0 UV-I 0 W/m 7,5 C 96,43 %
14/01/2020 00:29 9,9 C 86 % 1009,5 hPa 0,0 mm 0 min 0 min 0,000 mm 0,0 UV-I 0 W/m 7,7 C 100,00 %
14/01/2020 00:28 9,9 C 86 % 1009,6 hPa 0,0 mm 0 min 0 min 0,000 mm 0,0 UV-I 0 W/m 7,7 C 100,00 %
14/01/2020 00:27 9,9 C 86 % 1009,5 hPa 0,0 mm 0 min 0 min 0,000 mm 0,0 UV-I 0 W/m 7,7 C 95,83 %
14/01/2020 00:26 9,9 C 86 % 1009,6 hPa 0,0 mm 0 min 0 min 0,000 mm 0,0 UV-I 0 W/m 7,7 C 100,00 %
14/01/2020 00:25 9,9 C 86 % 1009,6 hPa 0,0 mm 0 min 0 min 0,000 mm 0,0 UV-I 0 W/m 7,7 C 95,65 %
14/01/2020 00:24 10,0 C 86 % 1009,6 hPa 0,0 mm 0 min 0 min 0,000 mm 0,0 UV-I 0 W/m 7,8 C 100,00 %
14/01/2020 00:23 10,0 C 86 % 1009,7 hPa 0,0 mm 0 min 0 min 0,000 mm 0,0 UV-I 0 W/m 7,8 C 100,00 %
14/01/2020 00:22 10,0 C 86 % 1009,7 hPa 0,0 mm 0 min 0 min 0,000 mm 0,0 UV-I 0 W/m 7,8 C 95,83 %
14/01/2020 00:21 10,0 C 86 % 1009,7 hPa 0,0 mm 0 min 0 min 0,000 mm 0,0 UV-I 0 W/m 7,8 C 100,00 %
14/01/2020 00:20 10,0 C 86 % 1009,7 hPa 0,0 mm 0 min 0 min 0,000 mm 0,0 UV-I 0 W/m 7,8 C 95,83 %
14/01/2020 00:19 10,0 C 86 % 1009,8 hPa 0,0 mm 0 min 0 min 0,000 mm 0,0 UV-I 0 W/m 7,8 C 100,00 %
14/01/2020 00:18 10,1 C 86 % 1009,8 hPa 0,0 mm 0 min 0 min 0,000 mm 0,0 UV-I 0 W/m 7,9 C 100,00 %
14/01/2020 00:17 10,1 C 86 % 1009,8 hPa 0,0 mm 0 min 0 min 0,000 mm 0,0 UV-I 0 W/m 7,9 C 100,00 %
14/01/2020 00:16 10,1 C 86 % 1009,7 hPa 0,0 mm 0 min 0 min 0,000 mm 0,0 UV-I 0 W/m 7,9 C 96,00 %
14/01/2020 00:15 10,1 C 86 % 1009,7 hPa 0,0 mm 0 min 0 min 0,000 mm 0,0 UV-I 0 W/m 7,9 C 96,30 %
14/01/2020 00:14 10,1 C 86 % 1009,7 hPa 0,0 mm 0 min 0 min 0,000 mm 0,0 UV-I 0 W/m 7,9 C 96,30 %
14/01/2020 00:13 10,1 C 86 % 1009,7 hPa 0,0 mm 0 min 0 min 0,000 mm 0,0 UV-I 0 W/m 7,9 C 95,83 %
14/01/2020 00:12 10,1 C 86 % 1009,6 hPa 0,0 mm 0 min 0 min 0,000 mm 0,0 UV-I 0 W/m 7,9 C 100,00 %
14/01/2020 00:11 10,1 C 86 % 1009,7 hPa 0,0 mm 0 min 0 min 0,000 mm 0,0 UV-I 0 W/m 7,9 C 96,00 %
14/01/2020 00:10 10,1 C 87 % 1009,6 hPa 0,0 mm 0 min 0 min 0,000 mm 0,0 UV-I 0 W/m 8,0 C 100,00 %
14/01/2020 00:09 10,1 C 87 % 1009,7 hPa 0,0 mm 0 min 0 min 0,000 mm 0,0 UV-I 0 W/m 8,0 C 100,00 %
14/01/2020 00:08 10,1 C 87 % 1009,7 hPa 0,0 mm 0 min 0 min 0,000 mm 0,0 UV-I 0 W/m 8,0 C 95,83 %
14/01/2020 00:07 10,1 C 87 % 1009,7 hPa 0,0 mm 0 min 0 min 0,000 mm 0,0 UV-I 0 W/m 8,0 C 100,00 %
14/01/2020 00:06 10,1 C 87 % 1009,7 hPa 0,0 mm 0 min 0 min 0,000 mm 0,0 UV-I 0 W/m 8,0 C 95,83 %
14/01/2020 00:05 10,1 C 87 % 1009,7 hPa 0,0 mm 0 min 0 min 0,000 mm 0,0 UV-I 0 W/m 8,0 C 93,88 %
14/01/2020 00:03 10,1 C 87 % 1009,8 hPa 0,0 mm 0 min 0 min 0,000 mm 0,0 UV-I 0 W/m 8,0 C 92,00 %
14/01/2020 00:02 10,1 C 87 % 1009,8 hPa 0,0 mm 0 min 0 min 0,000 mm 0,0 UV-I 0 W/m 8,0 C 95,83 %
14/01/2020 00:01 10,1 C 87 % 1009,8 hPa 0,0 mm 0 min 0 min 0,000 mm 0,0 UV-I 0 W/m 8,0 C 100,00 %
14/01/2020 00:00 10,1 C 87 % 1009,8 hPa 0,0 mm 0 min 0 min 0,000 mm 0,0 UV-I 0 W/m 8,0 C 100,00 %
_ Min-Heure 00:25 05:44 04:13 - - - - - - 01:22 02:13
Minimum _ 9,9 C 77 % 1007,3 hPa - - - - - - 6,8 C 83,33 %
_ Max-Heure 05:23 00:00 00:00 02:45 00:00 00:00 00:00 00:00 10:51 12:21 00:00
Maximum _ 11,2 C 87 % 1009,8 hPa 0,2 mm 0 min 0 min 0,000 mm 0,0 UV-I 49 W/m 8,2 C 100,00 %
Moyenne _ 10,5 C 81 % 1008,7 hPa #0,8 mm #0 min. #0 min. #0,000 mm 0,0 UV-I 25 W/m 7,4 C 98,02 %
Grandfresnoy - Oise - Picardie